FW6030 Weather Reports


time (UTC)temp
C
wind
direction
speed
KPH
gust
KPH
rain 1hr
cm
rain 24hr
cm
rain mn
cm
humidity
%
barometer
mb
20260902003937 33 360 6.4 12.9 0.00 0.00 0.00 50 1013.8
20260902003817 33 360 6.4 12.9 0.00 0.00 0.00 50 1013.8
20260902003718 33 360 6.4 12.9 0.00 0.00 0.00 50 1013.9
20260902003618 33 360 6.4 12.9 0.00 0.00 0.00 50 1013.9
20260902003519 33 360 6.4 12.9 0.00 0.00 0.00 50 1013.9
20260902003424 33 360 8.0 12.9 0.00 0.00 0.00 50 1014.0
20260902003325 33 360 6.4 12.9 0.00 0.00 0.00 50 1013.9
20260902003225 33 360 6.4 12.9 0.00 0.00 0.00 50 1014.0
20260902003126 33 360 4.8 12.9 0.00 0.00 0.00 50 1014.0
20260902003025 33 360 4.8 9.7 0.00 0.00 0.00 50 1014.0
20260902002926 33 360 6.4 14.5 0.00 0.00 0.00 50 1014.0
20260902002828 34 360 6.4 14.5 0.00 0.00 0.00 50 1014.0
20260902002732 34 360 4.8 14.5 0.00 0.00 0.00 49 1014.0
20260902002632 34 360 6.4 14.5 0.00 0.00 0.00 49 1014.0
20260902002534 34 360 6.4 14.5 0.00 0.00 0.00 49 1014.0
20260902002433 34 360 6.4 14.5 0.00 0.00 0.00 49 1014.0
20260902002335 34 360 8.0 14.5 0.00 0.00 0.00 49 1014.0
20260902002236 34 360 8.0 16.1 0.00 0.00 0.00 49 1014.0
20260902002120 34 360 9.7 16.1 0.00 0.00 0.00 49 1014.0
20260902002021 34 360 8.0 16.1 0.00 0.00 0.00 49 1014.0
20260902001922 34 360 6.4 16.1 0.00 0.00 0.00 49 1014.0
20260902001823 34 161 6.4 16.1 0.00 0.00 0.00 49 1014.0
20260902001723 34 360 6.4 16.1 0.00 0.00 0.00 49 1014.0
20260902001623 34 360 6.4 20.9 0.00 0.00 0.00 49 1014.0
20260902001522 34 360 8.0 20.9 0.00 0.00 0.00 49 1014.0
20260902001428 34 360 8.0 20.9 0.00 0.00 0.00 48 1013.9
20260902001329 34 360 8.0 20.9 0.00 0.00 0.00 48 1013.9
20260902001229 34 360 8.0 20.9 0.00 0.00 0.00 48 1013.9
20260902001131 34 360 6.4 22.5 0.00 0.00 0.00 48 1013.9
20260902001030 34 360 6.4 22.5 0.00 0.00 0.00 48 1014.0
20260902000951 34 360 6.4 24.1 0.00 0.00 0.00 48 1013.9
20260902000829 34 360 6.4 25.7 0.00 0.00 0.00 48 1013.9
20260902000733 34 360 8.0 25.7 0.00 0.00 0.00 48 1014.0
20260902000654 34 360 11.3 25.7 0.00 0.00 0.00 48 1013.9
20260902000553 34 360 12.9 25.7 0.00 0.00 0.00 48 1013.9
20260902000433 34 360 14.5 25.7 0.00 0.00 0.00 48 1013.9
20260902000334 34 360 12.9 25.7 0.00 0.00 0.00 48 1013.9
20260902000234 34 103 14.5 25.7 0.00 0.00 0.00 48 1013.9
20260902000134 34 360 14.5 25.7 0.00 0.00 0.00 48 1013.9
20260902000019 35 360 12.9 25.7 0.00 0.00 0.00 48 1013.9
20260901235917 35 360 12.9 22.5 0.00 0.00 0.00 48 1013.9
20260901235819 35 360 11.3 22.5 0.00 0.00 0.00 48 1013.9
20260901235718 35 173 9.7 24.1 0.00 0.00 0.00 47 1013.9
20260901235619 35 360 9.7 24.1 0.00 0.00 0.00 48 1013.9
20260901235521 35 360 8.0 25.7 0.00 0.00 0.00 48 1013.9
20260901235422 35 360 8.0 25.7 0.00 0.00 0.00 48 1013.9
20260901235327 35 360 8.0 25.7 0.00 0.00 0.00 47 1013.9
20260901235227 35 360 11.3 25.7 0.00 0.00 0.00 47 1013.9
20260901235128 35 105 11.3 25.7 0.00 0.00 0.00 47 1013.8
20260901235048 35 360 14.5 25.7 0.00 0.00 0.00 47 1013.9
20260901234928 35 360 14.5 25.7 0.00 0.00 0.00 47 1013.8
20260901234828 35 360 12.9 25.7 0.00 0.00 0.00 47 1014.0
20260901234728 35 360 11.3 25.7 0.00 0.00 0.00 47 1013.8
20260901234629 35 360 8.0 24.1 0.00 0.00 0.00 47 1013.8
20260901234535 35 360 9.7 24.1 0.00 0.00 0.00 46 1013.8
20260901234436 35 360 9.7 24.1 0.00 0.00 0.00 46 1013.8
20260901234317 35 106 12.9 24.1 0.00 0.00 0.00 46 1013.9
20260901234217 35 360 14.5 24.1 0.00 0.00 0.00 46 1013.9
20260901234118 35 360 12.9 24.1 0.00 0.00 0.00 46 1013.9
20260901234019 35 360 12.9 24.1 0.00 0.00 0.00 45 1013.8
20260901233923 35 360 11.3 20.9 0.00 0.00 0.00 45 1013.8
20260901233824 35 360 11.3 20.9 0.00 0.00 0.00 45 1013.8
20260901233725 35 360 9.7 20.9 0.00 0.00 0.00 45 1013.8
20260901233626 35 360 8.0 17.7 0.00 0.00 0.00 45 1013.8
20260901233527 35 360 8.0 17.7 0.00 0.00 0.00 45 1013.8
20260901233427 35 360 6.4 17.7 0.00 0.00 0.00 46 1013.8
20260901233331 35 360 6.4 17.7 0.00 0.00 0.00 46 1013.7
20260901233252 35 360 8.0 17.7 0.00 0.00 0.00 46 1013.8
20260901233132 35 360 8.0 17.7 0.00 0.00 0.00 45 1013.7
20260901233032 35 82 9.7 17.7 0.00 0.00 0.00 45 1013.8
20260901232933 35 49 9.7 17.7 0.00 0.00 0.00 45 1013.7
20260901232835 36 360 9.7 17.7 0.00 0.00 0.00 45 1013.7
20260901232735 36 360 8.0 17.7 0.00 0.00 0.00 45 1013.7
20260901232619 36 360 4.8 12.9 0.00 0.00 0.00 45 1013.8
20260901232520 36 360 4.8 12.9 0.00 0.00 0.00 45 1013.7
20260901232419 36 360 4.8 27.4 0.00 0.00 0.00 45 1013.8
20260901232321 36 360 4.8 27.4 0.00 0.00 0.00 45 1013.8
20260901232221 36 360 4.8 27.4 0.00 0.00 0.00 45 1013.7
20260901232122 36 360 4.8 27.4 0.00 0.00 0.00 46 1013.7
20260901232026 36 140 4.8 27.4 0.00 0.00 0.00 45 1013.7
20260901231927 36 360 6.4 27.4 0.00 0.00 0.00 45 1013.8
20260901231828 36 360 9.7 27.4 0.00 0.00 0.00 45 1013.8
20260901231747 36 360 12.9 27.4 0.00 0.00 0.00 45 1013.7
20260901231647 36 149 16.1 27.4 0.00 0.00 0.00 45 1013.8
20260901231526 36 141 16.1 25.7 0.00 0.00 0.00 45 1013.7
20260901231446 36 360 16.1 25.7 0.00 0.00 0.00 45 1013.7
20260901231345 36 360 14.5 25.7 0.00 0.00 0.00 44 1013.7
20260901231225 36 360 14.5 25.7 0.00 0.00 0.00 44 1013.7
20260901231129 36 360 11.3 25.7 0.00 0.00 0.00 45 1013.7
20260901231050 36 360 11.3 22.5 0.00 0.00 0.00 45 1013.7
20260901230930 36 123 11.3 20.9 0.00 0.00 0.00 45 1013.7
20260901230831 36 360 14.5 20.9 0.00 0.00 0.00 44 1013.6
20260901230732 36 360 14.5 20.9 0.00 0.00 0.00 44 1013.7
20260901230633 36 360 11.3 20.9 0.00 0.00 0.00 44 1013.7
20260901230518 36 360 9.7 20.9 0.00 0.00 0.00 44 1013.7
20260901230419 36 360 8.0 17.7 0.00 0.00 0.00 44 1013.7
20260901230339 36 360 8.0 17.7 0.00 0.00 0.00 44 1013.8
20260901230219 36 360 8.0 17.7 0.00 0.00 0.00 44 1013.6
20260901230120 36 360 4.8 17.7 0.00 0.00 0.00 45 1013.7
20260901230021 36 360 6.4 17.7 0.00 0.00 0.00 44 1013.7
20260901225941 36 89 8.0 17.7 0.00 0.00 0.00 44 1013.8
20260901225842 36 360 9.7 17.7 0.00 0.00 0.00 44 1013.8
20260901225725 36 360 8.0 19.3 0.00 0.00 0.00 44 1013.7
20260901225646 36 360 8.0 19.3 0.00 0.00 0.00 44 1013.7
20260901225545 36 360 6.4 19.3 0.00 0.00 0.00 43 1013.7
20260901225444 36 360 4.8 19.3 0.00 0.00 0.00 43 1013.7
20260901225323 36 360 6.4 20.9 0.00 0.00 0.00 43 1013.7
20260901225224 36 360 8.0 20.9 0.00 0.00 0.00 43 1013.7
20260901225125 36 360 11.3 20.9 0.00 0.00 0.00 43 1013.7
20260901225025 36 360 12.9 20.9 0.00 0.00 0.00 43 1013.7
20260901224930 36 360 11.3 20.9 0.00 0.00 0.00 43 1013.7
20260901224831 36 360 11.3 20.9 0.00 0.00 0.00 43 1013.5
20260901224731 36 149 11.3 20.9 0.00 0.00 0.00 43 1013.6
20260901224632 36 360 9.7 20.9 0.00 0.00 0.00 43 1013.6
20260901224533 36 360 9.7 20.9 0.00 0.00 0.00 42 1013.5
20260901224433 36 360 8.0 17.7 0.00 0.00 0.00 42 1013.5
20260901224317 36 360 11.3 17.7 0.00 0.00 0.00 42 1013.6
20260901224218 36 360 9.7 17.7 0.00 0.00 0.00 42 1013.6
20260901224119 36 360 8.0 16.1 0.00 0.00 0.00 42 1013.6
20260901224018 36 360 6.4 16.1 0.00 0.00 0.00 42 1013.7
20260901223919 36 360 4.8 14.5 0.00 0.00 0.00 42 1013.5
20260901223819 36 360 4.8 14.5 0.00 0.00 0.00 42 1013.6
20260901223720 36 360 6.4 14.5 0.00 0.00 0.00 42 1013.6
20260901223644 36 360 6.4 14.5 0.00 0.00 0.00 43 1013.6
20260901223523 36 360 6.4 14.5 0.00 0.00 0.00 42 1013.7
20260901223424 36 360 6.4 14.5 0.00 0.00 0.00 43 1013.7
20260901223324 36 360 8.0 14.5 0.00 0.00 0.00 43 1013.7
20260901223225 36 360 8.0 14.5 0.00 0.00 0.00 43 1013.7
20260901223124 36 360 8.0 14.5 0.00 0.00 0.00 43 1013.7
20260901223025 36 360 8.0 16.1 0.00 0.00 0.00 43 1013.7
20260901222931 36 360 8.0 16.1 0.00 0.00 0.00 43 1013.7
20260901222833 36 360 6.4 16.1 0.00 0.00 0.00 44 1013.7
20260901222732 36 360 6.4 16.1 0.00 0.00 0.00 43 1013.6
20260901222633 36 360 8.0 16.1 0.00 0.00 0.00 43 1013.7
20260901222534 36 360 8.0 16.1 0.00 0.00 0.00 43 1013.7
20260901222434 36 360 8.0 16.1 0.00 0.00 0.00 42 1013.8
20260901222319 36 360 8.0 16.1 0.00 0.00 0.00 44 1013.8
20260901222218 36 360 6.4 16.1 0.00 0.00 0.00 44 1013.8
20260901222119 36 360 6.4 16.1 0.00 0.00 0.00 44 1013.7
20260901222020 35 360 8.0 16.1 0.00 0.00 0.00 42 1013.8
20260901221920 35 360 9.7 16.1 0.00 0.00 0.00 42 1013.8
20260901221821 35 360 9.7 16.1 0.00 0.00 0.00 43 1013.8
20260901221721 35 360 9.7 16.1 0.00 0.00 0.00 44 1013.8
20260901221625 35 360 9.7 17.7 0.00 0.00 0.00 44 1013.9
20260901221526 35 360 9.7 20.9 0.00 0.00 0.00 43 1013.9
20260901221426 35 360 11.3 20.9 0.00 0.00 0.00 43 1013.7
20260901221348 36 360 9.7 20.9 0.00 0.00 0.00 45 1013.9
20260901221227 36 360 9.7 20.9 0.00 0.00 0.00 45 1013.9
20260901221127 36 360 8.0 20.9 0.00 0.00 0.00 45 1013.8
20260901221028 36 360 9.7 20.9 0.00 0.00 0.00 45 1013.8
20260901220933 36 360 9.7 20.9 0.00 0.00 0.00 44 1013.9
20260901220833 36 360 9.7 20.9 0.00 0.00 0.00 44 1013.9
20260901220753 36 360 11.3 20.9 0.00 0.00 0.00 45 1013.8
20260901220633 36 360 12.9 20.9 0.00 0.00 0.00 44 1013.8
20260901220534 36 360 11.3 20.9 0.00 0.00 0.00 44 1013.8
20260901220433 36 360 9.7 19.3 0.00 0.00 0.00 45 1013.7
20260901220334 36 360 8.0 14.5 0.00 0.00 0.00 45 1013.9
20260901220217 36 360 8.0 14.5 0.00 0.00 0.00 44 1013.8
20260901220118 36 360 6.4 17.7 0.00 0.00 0.00 44 1013.9
20260901220039 36 360 4.8 17.7 0.00 0.00 0.00 43 1013.8
20260901215918 36 360 4.8 17.7 0.00 0.00 0.00 43 1013.9
20260901215819 36 360 4.8 17.7 0.00 0.00 0.00 43 1013.8
20260901215719 36 360 4.8 17.7 0.00 0.00 0.00 43 1013.8
20260901215620 36 360 6.4 17.7 0.00 0.00 0.00 42 1013.8
20260901215525 36 360 9.7 17.7 0.00 0.00 0.00 42 1013.9
20260901215445 36 155 11.3 17.7 0.00 0.00 0.00 42 1013.9
20260901215325 36 360 9.7 17.7 0.00 0.00 0.00 42 1013.9
20260901215224 36 360 8.0 16.1 0.00 0.00 0.00 42 1013.8
20260901215123 36 360 4.8 9.7 0.00 0.00 0.00 42 1013.8
20260901215024 36 360 4.8 9.7 0.00 0.00 0.00 41 1013.8
20260901214924 36 173 3.2 9.7 0.00 0.00 0.00 43 1013.8
20260901214825 36 360 1.6 9.7 0.00 0.00 0.00 43 1013.8
20260901214729 36 360 1.6 9.7 0.00 0.00 0.00 43 1013.8
20260901214629 36 37 1.6 12.9 0.00 0.00 0.00 43 1013.9
20260901214529 36 360 3.2 12.9 0.00 0.00 0.00 43 1013.9
20260901214430 36 360 4.8 16.1 0.00 0.00 0.00 43 1013.9
20260901214330 36 360 6.4 16.1 0.00 0.00 0.00 43 1013.8
20260901214251 36 22 6.4 16.1 0.00 0.00 0.00 43 1013.8
20260901214131 36 80 8.0 24.1 0.00 0.00 0.00 43 1013.9
20260901214034 36 97 8.0 24.1 0.00 0.00 0.00 43 1013.8
20260901213916 36 102 9.7 24.1 0.00 0.00 0.00 43 1013.9
20260901213816 36 360 9.7 24.1 0.00 0.00 0.00 43 1013.9
20260901213716 36 360 9.7 24.1 0.00 0.00 0.00 42 1013.8
20260901213617 36 360 11.3 24.1 0.00 0.00 0.00 43 1013.9
20260901213517 36 360 12.9 24.1 0.00 0.00 0.00 42 1013.9
20260901213422 36 360 14.5 24.1 0.00 0.00 0.00 42 1013.9
20260901213322 36 360 12.9 24.1 0.00 0.00 0.00 43 1013.9
20260901213222 36 360 11.3 22.5 0.00 0.00 0.00 44 1013.9
20260901213122 36 360 9.7 19.3 0.00 0.00 0.00 43 1013.9
20260901213023 36 123 12.9 19.3 0.00 0.00 0.00 43 1013.9
20260901212922 36 360 12.9 19.3 0.00 0.00 0.00 43 1013.9
20260901212823 36 360 11.3 19.3 0.00 0.00 0.00 42 1014.0
20260901212723 36 360 8.0 19.3 0.00 0.00 0.00 43 1013.9
20260901212627 36 360 6.4 14.5 0.00 0.00 0.00 43 1013.9
20260901212548 36 360 6.4 14.5 0.00 0.00 0.00 43 1013.9
20260901212427 36 360 8.0 14.5 0.00 0.00 0.00 43 1013.9
20260901212327 36 360 8.0 14.5 0.00 0.00 0.00 43 1014.0
20260901212227 36 360 8.0 14.5 0.00 0.00 0.00 42 1013.9
20260901212148 36 360 6.4 14.5 0.00 0.00 0.00 42 1013.9
20260901212027 36 360 4.8 14.5 0.00 0.00 0.00 41 1013.9
20260901211947 37 360 6.4 14.5 0.00 0.00 0.00 42 1013.9
20260901211851 37 100 4.8 14.5 0.00 0.00 0.00 41 1014.0
20260901211730 37 360 4.8 14.5 0.00 0.00 0.00 41 1014.0
20260901211631 37 360 3.2 14.5 0.00 0.00 0.00 41 1014.0
20260901211532 37 202 3.2 8.0 0.00 0.00 0.00 41 1014.0
20260901211432 37 360 3.2 8.0 0.00 0.00 0.00 41 1014.1
20260901211332 37 360 3.2 8.0 0.00 0.00 0.00 41 1014.1
20260901211216 37 360 3.2 6.4 0.00 0.00 0.00 42 1014.1
20260901211117 36 360 3.2 8.0 0.00 0.00 0.00 43 1014.0
20260901211017 36 135 1.6 8.0 0.00 0.00 0.00 43 1014.0
20260901210917 36 360 1.6 12.9 0.00 0.00 0.00 42 1014.1
20260901210817 36 360 3.2 12.9 0.00 0.00 0.00 43 1014.1
20260901210719 36 92 4.8 12.9 0.00 0.00 0.00 43 1014.1
20260901210619 36 360 4.8 12.9 0.00 0.00 0.00 43 1014.1
20260901210524 36 360 4.8 12.9 0.00 0.00 0.00 43 1014.3
20260901210425 36 360 4.8 12.9 0.00 0.00 0.00 43 1014.3
20260901210345 36 360 4.8 12.9 0.00 0.00 0.00 43 1014.2
20260901210224 36 360 6.4 12.9 0.00 0.00 0.00 42 1014.4
20260901210125 36 360 8.0 12.9 0.00 0.00 0.00 42 1014.3
20260901210025 36 360 8.0 14.5 0.00 0.00 0.00 43 1014.3
20260901205926 36 360 6.4 17.7 0.00 0.00 0.00 43 1014.3
20260901205850 36 360 4.8 17.7 0.00 0.00 0.00 43 1014.4
20260901205729 35 360 3.2 17.7 0.00 0.00 0.00 44 1014.4
20260901205649 35 360 3.2 17.7 0.00 0.00 0.00 43 1014.4
20260901205549 35 360 4.8 17.7 0.00 0.00 0.00 43 1014.4
20260901205448 35 360 6.4 17.7 0.00 0.00 0.00 43 1014.5
20260901205327 36 360 9.7 17.7 0.00 0.00 0.00 43 1014.5
20260901205227 36 360 11.3 17.7 0.00 0.00 0.00 43 1014.6
20260901205128 36 360 11.3 16.1 0.00 0.00 0.00 42 1014.6
20260901205034 36 360 12.9 16.1 0.00 0.00 0.00 42 1014.6
20260901204934 36 360 9.7 16.1 0.00 0.00 0.00 43 1014.6
20260901204835 36 360 9.7 16.1 0.00 0.00 0.00 42 1014.5
20260901204735 37 360 8.0 16.1 0.00 0.00 0.00 41 1014.6
20260901204635 37 360 8.0 16.1 0.00 0.00 0.00 41 1014.6
20260901204555 37 360 4.8 16.1 0.00 0.00 0.00 41 1014.6
20260901204435 37 360 3.2 12.9 0.00 0.00 0.00 42 1014.7
20260901204320 36 360 4.8 12.9 0.00 0.00 0.00 43 1014.7
20260901204240 36 360 6.4 12.9 0.00 0.00 0.00 43 1014.7
20260901204120 36 360 6.4 12.9 0.00 0.00 0.00 42 1014.7
20260901204020 36 360 6.4 12.9 0.00 0.00 0.00 42 1014.7
20260901203920 36 360 6.4 12.9 0.00 0.00 0.00 43 1014.8
20260901203840 36 360 8.0 12.9 0.00 0.00 0.00 42 1014.8
20260901203741 36 360 6.4 12.9 0.00 0.00 0.00 42 1014.8
20260901203619 36 360 4.8 12.9 0.00 0.00 0.00 44 1014.8
20260901203521 36 360 4.8 16.1 0.00 0.00 0.00 44 1014.8
20260901203425 36 360 4.8 16.1 0.00 0.00 0.00 44 1014.8
20260901203325 36 360 4.8 16.1 0.00 0.00 0.00 44 1014.8
20260901203227 36 360 4.8 16.1 0.00 0.00 0.00 44 1014.7
20260901203128 36 360 3.2 16.1 0.00 0.00 0.00 43 1014.8
20260901203029 36 360 4.8 16.1 0.00 0.00 0.00 43 1014.8
20260901202929 36 360 4.8 16.1 0.00 0.00 0.00 43 1014.8
20260901202835 36 360 8.0 16.1 0.00 0.00 0.00 43 1014.8
20260901202756 37 360 8.0 16.1 0.00 0.00 0.00 42 1014.9
20260901202654 37 360 6.4 16.1 0.00 0.00 0.00 41 1014.9
20260901202534 37 360 3.2 12.9 0.00 0.00 0.00 42 1014.9
20260901202434 37 360 3.2 9.7 0.00 0.00 0.00 41 1014.9
20260901202335 37 360 3.2 9.7 0.00 0.00 0.00 41 1015.0
20260901202236 37 360 6.4 9.7 0.00 0.00 0.00 40 1015.0
20260901202120 37 360 6.4 9.7 0.00 0.00 0.00 41 1015.0
20260901202020 37 360 4.8 12.9 0.00 0.00 0.00 41 1015.0
20260901201920 37 360 4.8 12.9 0.00 0.00 0.00 42 1015.0
20260901201821 37 360 3.2 12.9 0.00 0.00 0.00 43 1015.1
20260901201721 37 360 3.2 14.5 0.00 0.00 0.00 43 1015.1
20260901201622 36 360 3.2 14.5 0.00 0.00 0.00 43 1015.2
20260901201522 36 360 1.6 14.5 0.00 0.00 0.00 44 1015.1
20260901201447 36 157 3.2 14.5 0.00 0.00 0.00 45 1015.2
20260901201327 36 360 3.2 14.5 0.00 0.00 0.00 45 1015.1
20260901201247 36 360 6.4 17.7 0.00 0.00 0.00 45 1015.2
20260901201127 36 360 6.4 17.7 0.00 0.00 0.00 45 1015.2
20260901201026 36 360 8.0 17.7 0.00 0.00 0.00 45 1015.2
20260901200926 36 167 6.4 17.7 0.00 0.00 0.00 46 1015.2
20260901200827 36 360 6.4 17.7 0.00 0.00 0.00 45 1015.2
20260901200727 36 360 6.4 17.7 0.00 0.00 0.00 46 1015.3
20260901200632 36 360 9.7 17.7 0.00 0.00 0.00 46 1015.2
20260901200553 36 360 9.7 17.7 0.00 0.00 0.00 45 1015.2
20260901200431 36 360 9.7 16.1 0.00 0.00 0.00 45 1015.3
20260901200332 36 360 8.0 16.1 0.00 0.00 0.00 44 1015.3
20260901200253 36 360 6.4 14.5 0.00 0.00 0.00 43 1015.3
20260901200132 36 360 4.8 9.7 0.00 0.00 0.00 42 1015.3
20260901200033 36 360 3.2 12.9 0.00 0.00 0.00 42 1015.3
20260901195916 37 360 0.0 12.9 0.00 0.00 0.00 42 1015.3
20260901195838 36 360 1.6 12.9 0.00 0.00 0.00 43 1015.3
20260901195717 36 360 1.6 12.9 0.00 0.00 0.00 43 1015.3
20260901195617 36 360 3.2 12.9 0.00 0.00 0.00 43 1015.3
20260901195539 36 360 4.8 12.9 0.00 0.00 0.00 43 1015.4
20260901195439 36 360 6.4 12.9 0.00 0.00 0.00 43 1015.5
20260901195318 36 360 6.4 12.9 0.00 0.00 0.00 43 1015.5
20260901195219 37 360 4.8 12.9 0.00 0.00 0.00 42 1015.4
20260901195123 37 360 3.2 9.7 0.00 0.00 0.00 44 1015.4
20260901195023 37 207 1.6 12.9 0.00 0.00 0.00 44 1015.4
20260901194924 37 360 3.2 12.9 0.00 0.00 0.00 43 1015.5
20260901194824 37 360 3.2 12.9 0.00 0.00 0.00 43 1015.5
20260901194726 37 360 1.6 12.9 0.00 0.00 0.00 43 1015.5
20260901194626 37 360 3.2 12.9 0.00 0.00 0.00 43 1015.6
20260901194530 37 256 1.6 12.9 0.00 0.00 0.00 43 1015.6
20260901194430 36 360 4.8 12.9 0.00 0.00 0.00 44 1015.5
20260901194331 36 360 4.8 12.9 0.00 0.00 0.00 44 1015.5
20260901194231 36 360 4.8 12.9 0.00 0.00 0.00 45 1015.5
20260901194132 36 360 4.8 9.7 0.00 0.00 0.00 45 1015.6
20260901194053 36 360 4.8 9.7 0.00 0.00 0.00 45 1015.6
20260901193930 36 360 4.8 9.7 0.00 0.00 0.00 44 1015.6
20260901193831 36 360 4.8 11.3 0.00 0.00 0.00 44 1015.6
20260901193735 36 360 3.2 6.4 0.00 0.00 0.00 46 1015.6
20260901193616 36 360 1.6 14.5 0.00 0.00 0.00 45 1015.6
20260901193516 36 143 1.6 14.5 0.00 0.00 0.00 45 1015.7
20260901193416 35 360 1.6 14.5 0.00 0.00 0.00 46 1015.6
20260901193317 35 360 1.6 14.5 0.00 0.00 0.00 46 1015.6
20260901193218 35 360 3.2 14.5 0.00 0.00 0.00 47 1015.7
20260901193143 35 360 3.2 14.5 0.00 0.00 0.00 47 1015.6
20260901193022 35 360 4.8 14.5 0.00 0.00 0.00 47 1015.6
20260901192923 35 360 8.0 14.5 0.00 0.00 0.00 46 1015.6
20260901192826 35 86 9.7 14.5 0.00 0.00 0.00 46 1015.7
20260901192725 35 360 8.0 14.5 0.00 0.00 0.00 47 1015.6
20260901192626 35 360 4.8 14.5 0.00 0.00 0.00 47 1015.8
20260901192527 35 360 3.2 9.7 0.00 0.00 0.00 47 1015.8
20260901192432 35 129 3.2 12.9 0.00 0.00 0.00 47 1015.8
20260901192333 35 360 3.2 12.9 0.00 0.00 0.00 48 1015.7
20260901192254 35 360 1.6 14.5 0.00 0.00 0.00 47 1015.8
20260901192132 35 360 1.6 14.5 0.00 0.00 0.00 47 1015.8
20260901192033 35 360 1.6 14.5 0.00 0.00 0.00 48 1015.6
20260901191934 35 360 1.6 14.5 0.00 0.00 0.00 47 1015.8
20260901191834 35 360 1.6 14.5 0.00 0.00 0.00 48 1015.8
20260901191718 35 360 4.8 14.5 0.00 0.00 0.00 48 1015.8
20260901191638 35 360 6.4 14.5 0.00 0.00 0.00 48 1015.8
20260901191559 35 360 8.0 14.5 0.00 0.00 0.00 49 1015.8
20260901191438 35 360 6.4 14.5 0.00 0.00 0.00 49 1015.9
20260901191358 35 360 6.4 12.9 0.00 0.00 0.00 49 1015.9
20260901191257 35 360 4.8 12.9 0.00 0.00 0.00 49 1015.8
20260901191156 35 360 4.8 16.1 0.00 0.00 0.00 49 1015.8
20260901191036 35 360 6.4 16.1 0.00 0.00 0.00 49 1015.9
20260901190917 35 360 6.4 16.1 0.00 0.00 0.00 49 1015.9
20260901190820 35 360 4.8 16.1 0.00 0.00 0.00 49 1015.8
20260901190722 35 360 4.8 16.1 0.00 0.00 0.00 49 1015.9
20260901190624 34 34 4.8 16.1 0.00 0.00 0.00 49 1016.0
20260901190524 34 360 6.4 16.1 0.00 0.00 0.00 50 1015.9
20260901190422 34 360 6.4 16.1 0.00 0.00 0.00 50 1016.0
20260901190322 34 51 9.7 16.1 0.00 0.00 0.00 49 1016.0
20260901190227 34 360 11.3 16.1 0.00 0.00 0.00 49 1016.0
20260901190128 35 360 11.3 16.1 0.00 0.00 0.00 49 1016.0
20260901190048 35 360 9.7 16.1 0.00 0.00 0.00 49 1016.0
20260901185927 35 360 8.0 14.5 0.00 0.00 0.00 48 1016.0
20260901185849 35 360 8.0 14.5 0.00 0.00 0.00 49 1016.0
20260901185727 35 360 6.4 16.1 0.00 0.00 0.00 48 1016.0
20260901185628 36 360 4.8 16.1 0.00 0.00 0.00 47 1016.0
20260901185528 36 360 3.2 16.1 0.00 0.00 0.00 47 1016.0
20260901185433 36 360 3.2 16.1 0.00 0.00 0.00 47 1016.0
20260901185335 36 360 3.2 16.1 0.00 0.00 0.00 47 1016.0
20260901185234 36 360 4.8 20.9 0.00 0.00 0.00 47 1016.0
20260901185135 35 360 4.8 20.9 0.00 0.00 0.00 48 1016.1
20260901185035 35 317 6.4 20.9 0.00 0.00 0.00 48 1016.2
20260901184916 35 360 9.7 20.9 0.00 0.00 0.00 48 1016.2
20260901184840 35 360 11.3 20.9 0.00 0.00 0.00 48 1016.2
20260901184719 35 360 11.3 20.9 0.00 0.00 0.00 48 1016.2
20260901184619 35 360 11.3 20.9 0.00 0.00 0.00 48 1016.3
20260901184520 35 360 8.0 20.9 0.00 0.00 0.00 48 1016.3
20260901184420 35 360 6.4 20.9 0.00 0.00 0.00 49 1016.2
20260901184320 35 360 6.4 20.9 0.00 0.00 0.00 50 1016.3
20260901184221 35 360 9.7 20.9 0.00 0.00 0.00 50 1016.3
20260901184145 35 360 12.9 20.9 0.00 0.00 0.00 48 1016.4
20260901184025 35 360 12.9 20.9 0.00 0.00 0.00 49 1016.4
20260901183945 35 360 12.9 20.9 0.00 0.00 0.00 49 1016.4
20260901183825 35 360 12.9 20.9 0.00 0.00 0.00 49 1016.4
20260901183725 35 360 12.9 20.9 0.00 0.00 0.00 48 1016.4
20260901183626 36 360 8.0 19.3 0.00 0.00 0.00 48 1016.4
20260901183525 36 132 6.4 19.3 0.00 0.00 0.00 49 1016.4
20260901183426 35 360 4.8 19.3 0.00 0.00 0.00 49 1016.5
20260901183330 35 360 8.0 19.3 0.00 0.00 0.00 50 1016.6
20260901183231 35 360 8.0 19.3 0.00 0.00 0.00 50 1016.6
20260901183132 35 360 8.0 19.3 0.00 0.00 0.00 50 1016.6
20260901183032 35 360 6.4 19.3 0.00 0.00 0.00 50 1016.6
20260901182952 35 360 4.8 22.5 0.00 0.00 0.00 50 1016.6
20260901182833 35 360 6.4 22.5 0.00 0.00 0.00 53 1016.5
20260901182733 34 360 9.7 22.5 0.00 0.00 0.00 51 1016.6
20260901182617 34 360 11.3 22.5 0.00 0.00 0.00 51 1016.7
20260901182518 34 360 11.3 22.5 0.00 0.00 0.00 50 1016.6
20260901182438 35 360 11.3 22.5 0.00 0.00 0.00 51 1016.6
20260901182318 34 360 12.9 22.5 0.00 0.00 0.00 51 1016.6
20260901182219 34 98 11.3 22.5 0.00 0.00 0.00 51 1016.7
20260901182118 35 360 8.0 19.3 0.00 0.00 0.00 50 1016.6
20260901182020 35 360 6.4 17.7 0.00 0.00 0.00 51 1016.6
20260901181925 35 360 6.4 17.7 0.00 0.00 0.00 50 1016.6
20260901181825 35 360 9.7 17.7 0.00 0.00 0.00 50 1016.7
20260901181725 35 360 9.7 17.7 0.00 0.00 0.00 49 1016.8
20260901181626 35 360 8.0 19.3 0.00 0.00 0.00 48 1016.8
20260901181526 35 360 4.8 19.3 0.00 0.00 0.00 49 1016.8
20260901181427 35 360 4.8 19.3 0.00 0.00 0.00 50 1016.7
20260901181347 35 360 6.4 19.3 0.00 0.00 0.00 50 1016.8
20260901181231 35 360 8.0 19.3 0.00 0.00 0.00 50 1016.8
20260901181132 35 360 9.7 22.5 0.00 0.00 0.00 50 1016.8
20260901181032 35 360 9.7 22.5 0.00 0.00 0.00 50 1016.8
20260901180952 35 360 9.7 22.5 0.00 0.00 0.00 49 1016.8
20260901180852 35 360 9.7 22.5 0.00 0.00 0.00 49 1016.8
20260901180732 35 360 11.3 22.5 0.00 0.00 0.00 49 1016.9
20260901180632 35 360 11.3 19.3 0.00 0.00 0.00 48 1016.9
20260901180533 35 141 12.9 19.3 0.00 0.00 0.00 48 1016.9
20260901180417 35 360 9.7 17.7 0.00 0.00 0.00 48 1016.9
20260901180337 35 360 6.4 17.7 0.00 0.00 0.00 49 1016.9
20260901180216 35 360 4.8 17.7 0.00 0.00 0.00 48 1016.9
20260901180117 35 187 3.2 22.5 0.00 0.00 0.00 49 1017.0
20260901180018 35 360 4.8 24.1 0.00 0.00 0.00 50 1016.9
20260901175938 34 360 8.0 24.1 0.00 0.00 0.00 50 1017.0
20260901175839 34 360 9.7 24.1 0.00 0.00 0.00 49 1017.0
20260901175717 35 169 11.3 24.1 0.00 0.00 0.00 50 1017.1
20260901175621 34 360 11.3 24.1 0.00 0.00 0.00 51 1017.1
20260901175522 34 360 12.9 24.1 0.00 0.00 0.00 51 1017.1
20260901175422 34 360 14.5 24.1 0.00 0.00 0.00 51 1017.1
20260901175322 34 360 14.5 24.1 0.00 0.00 0.00 50 1017.2
20260901175223 34 360 12.9 24.1 0.00 0.00 0.00 50 1017.1
20260901175123 34 360 8.0 19.3 0.00 0.00 0.00 51 1017.1
20260901175028 34 360 6.4 17.7 0.00 0.00 0.00 51 1017.1
20260901174927 34 360 6.4 12.9 0.00 0.00 0.00 50 1017.1
20260901174828 35 84 6.4 12.9 0.00 0.00 0.00 50 1017.1
20260901174728 35 360 8.0 12.9 0.00 0.00 0.00 49 1017.2
20260901174628 35 101 6.4 19.3 0.00 0.00 0.00 49 1017.2
20260901174529 35 360 6.4 19.3 0.00 0.00 0.00 49 1017.2
20260901174430 35 360 6.4 19.3 0.00 0.00 0.00 49 1017.2
20260901174335 35 360 4.8 19.3 0.00 0.00 0.00 50 1017.2
20260901174255 35 360 4.8 19.3 0.00 0.00 0.00 49 1017.2
20260901174135 35 360 6.4 19.3 0.00 0.00 0.00 50 1017.2
20260901174035 35 360 6.4 19.3 0.00 0.00 0.00 49 1017.3
20260901173936 35 360 8.0 19.3 0.00 0.00 0.00 49 1017.3
20260901173835 35 360 6.4 19.3 0.00 0.00 0.00 50 1017.3
20260901173717 34 360 6.4 19.3 0.00 0.00 0.00 50 1017.3
20260901173622 34 360 6.4 19.3 0.00 0.00 0.00 51 1017.3
20260901173521 34 360 6.4 19.3 0.00 0.00 0.00 51 1017.4
20260901173421 34 81 8.0 19.3 0.00 0.00 0.00 50 1017.4
20260901173321 34 360 9.7 19.3 0.00 0.00 0.00 51 1017.4
20260901173222 34 360 11.3 19.3 0.00 0.00 0.00 50 1017.4
20260901173123 35 360 9.7 19.3 0.00 0.00 0.00 51 1017.4
20260901173024 35 360 8.0 19.3 0.00 0.00 0.00 51 1017.5
20260901172928 35 360 8.0 19.3 0.00 0.00 0.00 50 1017.4
20260901172832 35 360 6.4 17.7 0.00 0.00 0.00 52 1017.4
20260901172730 34 360 6.4 17.7 0.00 0.00 0.00 52 1017.5
20260901172631 34 360 8.0 17.7 0.00 0.00 0.00 52 1017.5
20260901172532 34 360 8.0 17.7 0.00 0.00 0.00 51 1017.4
20260901172434 34 360 8.0 17.7 0.00 0.00 0.00 51 1017.4
20260901172318 34 360 8.0 17.7 0.00 0.00 0.00 51 1017.4
20260901172220 34 360 6.4 17.7 0.00 0.00 0.00 51 1017.5
20260901172139 33 360 4.8 17.7 0.00 0.00 0.00 52 1017.5
20260901172019 34 360 3.2 17.7 0.00 0.00 0.00 52 1017.6
20260901171919 33 360 3.2 19.3 0.00 0.00 0.00 52 1017.5
20260901171818 33 360 4.8 19.3 0.00 0.00 0.00 53 1017.5
20260901171717 33 360 6.4 19.3 0.00 0.00 0.00 52 1017.6
20260901171622 33 360 6.4 19.3 0.00 0.00 0.00 52 1017.6
20260901171522 33 360 8.0 19.3 0.00 0.00 0.00 52 1017.5
20260901171423 33 360 8.0 19.3 0.00 0.00 0.00 52 1017.5
20260901171324 33 360 9.7 19.3 0.00 0.00 0.00 51 1017.5
20260901171225 33 360 12.9 19.3 0.00 0.00 0.00 52 1017.6
20260901171145 33 360 11.3 19.3 0.00 0.00 0.00 52 1017.6
20260901171025 33 360 11.3 19.3 0.00 0.00 0.00 52 1017.6
20260901170930 33 360 9.7 16.1 0.00 0.00 0.00 51 1017.6
20260901170830 33 360 8.0 16.1 0.00 0.00 0.00 51 1017.6
20260901170730 33 360 6.4 16.1 0.00 0.00 0.00 51 1017.7
20260901170630 33 360 6.4 16.1 0.00 0.00 0.00 51 1017.6
20260901170530 33 360 8.0 16.1 0.00 0.00 0.00 51 1017.6
20260901170430 33 360 9.7 16.1 0.00 0.00 0.00 51 1017.6
20260901170331 34 360 8.0 16.1 0.00 0.00 0.00 50 1017.6
20260901170251 35 360 4.8 16.1 0.00 0.00 0.00 49 1017.6
20260901170135 35 360 3.2 9.7 0.00 0.00 0.00 48 1017.6
20260901170031 35 360 3.2 8.0 0.00 0.00 0.00 50 1017.7
20260901165951 35 360 3.2 8.0 0.00 0.00 0.00 53 1017.7
20260901165832 35 360 3.2 8.0 0.00 0.00 0.00 53 1017.8
20260901165731 35 360 3.2 8.0 0.00 0.00 0.00 53 1017.8
20260901165632 35 360 3.2 8.0 0.00 0.00 0.00 54 1017.7
20260901165533 35 360 3.2 8.0 0.00 0.00 0.00 54 1017.7
20260901165417 33 360 4.8 8.0 0.00 0.00 0.00 55 1017.8
20260901165318 33 360 4.8 8.0 0.00 0.00 0.00 56 1017.9
20260901165218 33 360 4.8 8.0 0.00 0.00 0.00 56 1017.9
20260901165119 33 86 4.8 8.0 0.00 0.00 0.00 55 1017.9
20260901165020 34 85 4.8 8.0 0.00 0.00 0.00 55 1017.8
20260901164921 35 360 4.8 9.7 0.00 0.00 0.00 55 1017.9
20260901164841 34 360 3.2 9.7 0.00 0.00 0.00 57 1017.9
20260901164724 34 360 3.2 9.7 0.00 0.00 0.00 57 1017.9
20260901164625 33 62 3.2 14.5 0.00 0.00 0.00 57 1018.0
20260901164526 33 360 3.2 14.5 0.00 0.00 0.00 57 1017.9
20260901164427 33 360 3.2 14.5 0.00 0.00 0.00 57 1017.9
20260901164327 33 360 3.2 14.5 0.00 0.00 0.00 57 1017.9
20260901164227 33 360 4.8 19.3 0.00 0.00 0.00 57 1017.9
20260901164132 33 360 6.4 19.3 0.00 0.00 0.00 60 1017.9
20260901164033 33 360 6.4 19.3 0.00 0.00 0.00 59 1017.8
20260901163933 33 360 6.4 19.3 0.00 0.00 0.00 59 1017.8
20260901163834 33 360 6.4 19.3 0.00 0.00 0.00 59 1017.8
20260901163734 33 360 4.8 19.3 0.00 0.00 0.00 59 1017.9
20260901163635 33 360 4.8 19.3 0.00 0.00 0.00 59 1017.8
20260901163516 33 360 8.0 19.3 0.00 0.00 0.00 59 1017.9
20260901163421 33 142 9.7 19.3 0.00 0.00 0.00 59 1017.8
20260901163322 33 360 8.0 19.3 0.00 0.00 0.00 58 1017.9
20260901163222 34 360 4.8 19.3 0.00 0.00 0.00 58 1017.7
20260901163120 34 360 3.2 8.0 0.00 0.00 0.00 58 1017.8
20260901163020 34 360 1.6 8.0 0.00 0.00 0.00 59 1017.9
20260901162921 33 360 3.2 8.0 0.00 0.00 0.00 58 1018.0
20260901162827 34 360 3.2 8.0 0.00 0.00 0.00 58 1017.9
20260901162727 34 360 3.2 8.0 0.00 0.00 0.00 57 1017.9
20260901162628 34 360 1.6 8.0 0.00 0.00 0.00 57 1018.0
20260901162549 34 360 1.6 8.0 0.00 0.00 0.00 59 1018.0
20260901162429 33 360 3.2 9.7 0.00 0.00 0.00 59 1018.0
20260901162349 33 360 3.2 9.7 0.00 0.00 0.00 59 1018.1
20260901162228 33 360 3.2 9.7 0.00 0.00 0.00 60 1018.0
20260901162129 33 74 4.8 9.7 0.00 0.00 0.00 60 1018.1
20260901162034 33 360 6.4 9.7 0.00 0.00 0.00 58 1018.1
20260901161935 33 360 6.4 9.7 0.00 0.00 0.00 57 1018.1
20260901161835 34 360 4.8 9.7 0.00 0.00 0.00 58 1018.2
20260901161735 34 360 3.2 9.7 0.00 0.00 0.00 58 1018.2
20260901161636 34 360 1.6 8.0 0.00 0.00 0.00 59 1018.1
20260901161556 33 290 1.6 8.0 0.00 0.00 0.00 60 1018.2
20260901161420 33 360 3.2 8.0 0.00 0.00 0.00 60 1018.1
20260901161340 33 360 4.8 8.0 0.00 0.00 0.00 58 1018.2
20260901161220 33 360 4.8 8.0 0.00 0.00 0.00 58 1018.1
20260901161121 34 360 4.8 8.0 0.00 0.00 0.00 58 1018.1
20260901161022 34 360 4.8 8.0 0.00 0.00 0.00 57 1018.2
20260901160943 34 360 3.2 8.0 0.00 0.00 0.00 57 1018.2
20260901160822 34 360 3.2 8.0 0.00 0.00 0.00 57 1018.2
20260901160724 34 360 1.6 8.0 0.00 0.00 0.00 58 1018.1
20260901160628 34 360 1.6 8.0 0.00 0.00 0.00 58 1018.2
20260901160529 34 360 1.6 8.0 0.00 0.00 0.00 58 1018.2
20260901160429 33 360 1.6 8.0 0.00 0.00 0.00 58 1018.2
20260901160330 33 360 1.6 8.0 0.00 0.00 0.00 58 1018.2
20260901160252 33 360 3.2 8.0 0.00 0.00 0.00 60 1018.1
20260901160131 33 360 3.2 8.0 0.00 0.00 0.00 60 1018.2
20260901160016 33 350 3.2 8.0 0.00 0.00 0.00 60 1018.2
20260901155916 33 360 3.2 4.8 0.00 0.00 0.00 60 1018.2
20260901155818 32 360 3.2 6.4 0.00 0.00 0.00 60 1018.2
20260901155717 33 360 3.2 6.4 0.00 0.00 0.00 59 1018.2
20260901155617 33 60 3.2 9.7 0.00 0.00 0.00 58 1018.2
20260901155517 33 360 3.2 9.7 0.00 0.00 0.00 59 1018.2
20260901155418 33 360 3.2 9.7 0.00 0.00 0.00 59 1018.2
20260901155324 33 360 1.6 9.7 0.00 0.00 0.00 60 1018.2
20260901155223 33 360 3.2 9.7 0.00 0.00 0.00 61 1018.1
20260901155124 33 360 3.2 9.7 0.00 0.00 0.00 61 1018.2
20260901155025 32 32 4.8 9.7 0.00 0.00 0.00 61 1018.2
20260901154945 32 30 4.8 9.7 0.00 0.00 0.00 61 1018.1
20260901154825 32 360 4.8 9.7 0.00 0.00 0.00 61 1018.2
20260901154724 32 34 3.2 9.7 0.00 0.00 0.00 61 1018.2
20260901154625 32 360 3.2 9.7 0.00 0.00 0.00 61 1018.2
20260901154530 33 360 4.8 9.7 0.00 0.00 0.00 61 1018.2
20260901154431 32 360 6.4 9.7 0.00 0.00 0.00 61 1018.2
20260901154331 32 360 4.8 8.0 0.00 0.00 0.00 61 1018.1
20260901154232 33 360 4.8 8.0 0.00 0.00 0.00 61 1018.2
20260901154133 33 339 3.2 8.0 0.00 0.00 0.00 62 1018.1
20260901154034 33 360 3.2 8.0 0.00 0.00 0.00 61 1018.1
20260901153939 33 360 4.8 8.0 0.00 0.00 0.00 61 1018.1
20260901153820 33 61 3.2 8.0 0.00 0.00 0.00 61 1018.2
20260901153721 33 360 3.2 6.4 0.00 0.00 0.00 61 1018.1
20260901153622 33 360 3.2 6.4 0.00 0.00 0.00 62 1018.1
20260901153522 33 360 3.2 6.4 0.00 0.00 0.00 62 1018.1
20260901153423 33 360 3.2 6.4 0.00 0.00 0.00 62 1018.1
20260901153343 33 78 1.6 6.4 0.00 0.00 0.00 61 1018.1
20260901153243 33 360 1.6 6.4 0.00 0.00 0.00 62 1018.1
20260901153127 33 360 0.0 6.4 0.00 0.00 0.00 62 1018.1
20260901153025 33 360 0.0 8.0 0.00 0.00 0.00 62 1018.1
20260901152946 33 360 0.0 12.9 0.00 0.00 0.00 63 1018.1
20260901152847 32 360 0.0 12.9 0.00 0.00 0.00 63 1018.1
20260901152727 32 360 1.6 12.9 0.00 0.00 0.00 62 1018.1
20260901152627 32 360 3.2 12.9 0.00 0.00 0.00 62 1018.1
20260901152528 33 360 3.2 12.9 0.00 0.00 0.00 60 1018.1
20260901152427 33 360 4.8 12.9 0.00 0.00 0.00 60 1018.1
20260901152327 33 360 4.8 12.9 0.00 0.00 0.00 59 1018.0
20260901152232 34 360 4.8 12.9 0.00 0.00 0.00 59 1018.0
20260901152133 34 360 4.8 12.9 0.00 0.00 0.00 58 1018.1
20260901152033 35 360 3.2 9.7 0.00 0.00 0.00 59 1018.1
20260901151933 35 360 1.6 4.8 0.00 0.00 0.00 59 1018.0
20260901151833 34 360 1.6 4.8 0.00 0.00 0.00 60 1018.1
20260901151734 34 360 3.2 4.8 0.00 0.00 0.00 61 1018.1
20260901151638 33 360 1.6 4.8 0.00 0.00 0.00 62 1018.1
20260901151517 33 360 3.2 4.8 0.00 0.00 0.00 62 1018.1
20260901151418 33 360 1.6 4.8 0.00 0.00 0.00 63 1018.2
20260901151318 33 225 1.6 4.8 0.00 0.00 0.00 64 1018.1
20260901151219 32 360 1.6 6.4 0.00 0.00 0.00 66 1018.2
20260901151119 32 117 1.6 6.4 0.00 0.00 0.00 66 1018.1
20260901151019 32 117 1.6 6.4 0.00 0.00 0.00 65 1018.1
20260901150925 32 360 1.6 6.4 0.00 0.00 0.00 67 1018.1
20260901150826 32 360 0.0 6.4 0.00 0.00 0.00 67 1018.1
20260901150727 31 360 1.6 9.7 0.00 0.00 0.00 67 1018.1
20260901150627 31 360 1.6 9.7 0.00 0.00 0.00 68 1018.1
20260901150527 31 360 3.2 9.7 0.00 0.00 0.00 68 1018.2
20260901150428 31 360 3.2 9.7 0.00 0.00 0.00 68 1018.1
20260901150350 31 360 3.2 9.7 0.00 0.00 0.00 68 1018.2
20260901150232 31 360 3.2 9.7 0.00 0.00 0.00 69 1018.2
20260901150131 31 360 3.2 9.7 0.00 0.00 0.00 70 1018.2
20260901150031 30 360 4.8 9.7 0.00 0.00 0.00 70 1018.1
20260901145932 30 360 6.4 9.7 0.00 0.00 0.00 69 1018.2
20260901145853 30 360 6.4 9.7 0.00 0.00 0.00 68 1018.1
20260901145732 31 360 4.8 9.7 0.00 0.00 0.00 68 1018.2
20260901145633 31 360 3.2 8.0 0.00 0.00 0.00 68 1018.3
20260901145517 31 142 3.2 8.0 0.00 0.00 0.00 68 1018.2
20260901145418 31 360 3.2 8.0 0.00 0.00 0.00 66 1018.2
20260901145319 31 360 3.2 8.0 0.00 0.00 0.00 66 1018.2
20260901145239 32 143 3.2 8.0 0.00 0.00 0.00 65 1018.2
20260901145119 32 144 1.6 8.0 0.00 0.00 0.00 65 1018.2
20260901145019 32 360 0.0 4.8 0.00 0.00 0.00 65 1018.2
20260901144920 32 360 0.0 4.8 0.00 0.00 0.00 66 1018.2
20260901144824 32 360 0.0 4.8 0.00 0.00 0.00 66 1018.2
20260901144725 32 360 1.6 4.8 0.00 0.00 0.00 66 1018.3
20260901144645 32 360 1.6 4.8 0.00 0.00 0.00 67 1018.2
20260901144544 31 360 1.6 4.8 0.00 0.00 0.00 67 1018.3
20260901144424 31 360 1.6 4.8 0.00 0.00 0.00 66 1018.2
20260901144324 32 360 1.6 6.4 0.00 0.00 0.00 65 1018.2
20260901144225 32 360 1.6 8.0 0.00 0.00 0.00 66 1018.2
20260901144129 32 360 3.2 8.0 0.00 0.00 0.00 67 1018.2
20260901144029 31 360 1.6 8.0 0.00 0.00 0.00 67 1018.3
20260901143929 31 360 1.6 8.0 0.00 0.00 0.00 67 1018.3
20260901143830 31 360 1.6 8.0 0.00 0.00 0.00 66 1018.2
20260901143752 32 360 3.2 8.0 0.00 0.00 0.00 65 1018.2
20260901143631 32 360 3.2 8.0 0.00 0.00 0.00 65 1018.3
20260901143532 32 360 4.8 9.7 0.00 0.00 0.00 65 1018.2
20260901143416 32 360 4.8 9.7 0.00 0.00 0.00 64 1018.3
20260901143316 33 360 3.2 9.7 0.00 0.00 0.00 64 1018.2
20260901143216 33 360 3.2 9.7 0.00 0.00 0.00 65 1018.2
20260901143116 33 284 3.2 9.7 0.00 0.00 0.00 65 1018.2
20260901143017 32 275 3.2 9.7 0.00 0.00 0.00 66 1018.3
20260901142916 32 360 4.8 9.7 0.00 0.00 0.00 66 1018.2
20260901142823 32 360 4.8 9.7 0.00 0.00 0.00 67 1018.2
20260901142723 32 360 4.8 8.0 0.00 0.00 0.00 67 1018.2
20260901142623 32 360 3.2 6.4 0.00 0.00 0.00 67 1018.2
20260901142523 32 360 3.2 6.4 0.00 0.00 0.00 67 1018.2
20260901142424 32 258 3.2 6.4 0.00 0.00 0.00 68 1018.3
20260901142326 32 302 3.2 8.0 0.00 0.00 0.00 67 1018.3
20260901142227 32 360 1.6 8.0 0.00 0.00 0.00 68 1018.2
20260901142132 32 360 1.6 8.0 0.00 0.00 0.00 69 1018.3
20260901142032 31 360 1.6 8.0 0.00 0.00 0.00 69 1018.3
20260901141932 31 360 3.2 8.0 0.00 0.00 0.00 69 1018.3
20260901141832 31 268 4.8 8.0 0.00 0.00 0.00 70 1018.3
20260901141733 31 269 4.8 8.0 0.00 0.00 0.00 70 1018.3
20260901141634 31 360 3.2 8.0 0.00 0.00 0.00 70 1018.3
20260901141554 31 360 3.2 8.0 0.00 0.00 0.00 70 1018.3
20260901141437 31 360 1.6 8.0 0.00 0.00 0.00 70 1018.3
20260901141317 31 360 3.2 8.0 0.00 0.00 0.00 71 1018.3
20260901141217 31 360 3.2 9.7 0.00 0.00 0.00 72 1018.4
20260901141118 31 360 3.2 9.7 0.00 0.00 0.00 72 1018.4
20260901141018 30 360 3.2 9.7 0.00 0.00 0.00 72 1018.4
20260901140918 30 360 3.2 9.7 0.00 0.00 0.00 72 1018.4
20260901140819 30 317 3.2 9.7 0.00 0.00 0.00 72 1018.4
20260901140724 30 325 4.8 9.7 0.00 0.00 0.00 72 1018.3
20260901140625 30 325 4.8 9.7 0.00 0.00 0.00 72 1018.4
20260901140526 30 323 4.8 9.7 0.00 0.00 0.00 73 1018.4
20260901140426 30 313 3.2 9.7 0.00 0.00 0.00 73 1018.4
20260901140327 30 360 3.2 9.7 0.00 0.00 0.00 73 1018.4
20260901140248 30 360 4.8 9.7 0.00 0.00 0.00 73 1018.4
20260901140127 30 360 4.8 9.7 0.00 0.00 0.00 73 1018.4
20260901140032 30 329 4.8 9.7 0.00 0.00 0.00 73 1018.4
20260901135933 30 360 3.2 9.7 0.00 0.00 0.00 73 1018.4
20260901135835 30 304 3.2 9.7 0.00 0.00 0.00 73 1018.4
20260901135733 30 308 3.2 9.7 0.00 0.00 0.00 73 1018.5
20260901135633 30 360 1.6 8.0 0.00 0.00 0.00 73 1018.5
20260901135533 30 304 3.2 6.4 0.00 0.00 0.00 73 1018.5
20260901135418 30 360 3.2 6.4 0.00 0.00 0.00 75 1018.4
20260901135318 30 360 3.2 6.4 0.00 0.00 0.00 75 1018.4
20260901135218 30 360 3.2 6.4 0.00 0.00 0.00 75 1018.4
20260901135138 29 309 3.2 6.4 0.00 0.00 0.00 76 1018.5
20260901135018 29 309 3.2 6.4 0.00 0.00 0.00 76 1018.4
20260901134917 29 311 3.2 6.4 0.00 0.00 0.00 76 1018.5
20260901134819 28 315 3.2 4.8 0.00 0.00 0.00 76 1018.4
20260901134723 29 360 3.2 4.8 0.00 0.00 0.00 76 1018.4
20260901134624 29 315 3.2 4.8 0.00 0.00 0.00 76 1018.4
20260901134524 29 316 3.2 4.8 0.00 0.00 0.00 76 1018.3
20260901134425 29 315 1.6 4.8 0.00 0.00 0.00 76 1018.3
20260901134345 28 315 1.6 3.2 0.00 0.00 0.00 77 1018.3
20260901134224 28 315 1.6 3.2 0.00 0.00 0.00 77 1018.2
20260901134123 28 360 1.6 3.2 0.00 0.00 0.00 78 1018.3
20260901134024 28 315 1.6 3.2 0.00 0.00 0.00 78 1018.3
20260901133929 28 315 1.6 3.2 0.00 0.00 0.00 79 1018.2
20260901133830 28 360 0.0 3.2 0.00 0.00 0.00 79 1018.2
20260901133749 28 360 0.0 3.2 0.00 0.00 0.00 80 1018.3
20260901133629 28 316 1.6 4.8 0.00 0.00 0.00 80 1018.1
20260901133530 27 315 1.6 4.8 0.00 0.00 0.00 80 1018.1
20260901133450 27 316 1.6 4.8 0.00 0.00 0.00 81 1018.1
20260901133329 27 316 1.6 4.8 0.00 0.00 0.00 81 1018.1
20260901133235 27 316 1.6 4.8 0.00 0.00 0.00 81 1018.2
20260901133134 27 317 1.6 4.8 0.00 0.00 0.00 81 1018.1
20260901133035 27 317 3.2 4.8 0.00 0.00 0.00 82 1018.1
20260901132935 27 316 3.2 4.8 0.00 0.00 0.00 82 1018.1
20260901132837 27 317 3.2 4.8 0.00 0.00 0.00 82 1018.1
20260901132735 27 313 3.2 4.8 0.00 0.00 0.00 82 1018.1
20260901132656 27 314 1.6 4.8 0.00 0.00 0.00 82 1018.1
20260901132520 26 315 3.2 4.8 0.00 0.00 0.00 82 1018.1
20260901132421 26 315 3.2 4.8 0.00 0.00 0.00 83 1018.0
20260901132322 26 315 3.2 4.8 0.00 0.00 0.00 83 1018.0
20260901132221 26 309 3.2 4.8 0.00 0.00 0.00 84 1018.1
20260901132122 26 309 1.6 4.8 0.00 0.00 0.00 84 1018.0
20260901132023 26 309 3.2 4.8 0.00 0.00 0.00 84 1018.0
20260901131923 26 309 3.2 4.8 0.00 0.00 0.00 84 1018.0
20260901131849 26 309 1.6 4.8 0.00 0.00 0.00 84 1018.0
20260901131727 26 360 3.2 4.8 0.00 0.00 0.00 84 1018.0
20260901131628 26 307 1.6 4.8 0.00 0.00 0.00 84 1018.0
20260901131530 26 308 1.6 4.8 0.00 0.00 0.00 84 1018.0
20260901131430 26 308 0.0 4.8 0.00 0.00 0.00 84 1017.9
20260901131330 26 308 1.6 4.8 0.00 0.00 0.00 85 1018.0
20260901131231 26 360 1.6 4.8 0.00 0.00 0.00 85 1017.9
20260901131155 26 309 1.6 6.4 0.00 0.00 0.00 85 1017.9
20260901131055 26 309 1.6 6.4 0.00 0.00 0.00 85 1017.9
20260901130935 26 360 1.6 6.4 0.00 0.00 0.00 85 1017.9
20260901130836 25 306 1.6 6.4 0.00 0.00 0.00 85 1017.9
20260901130735 26 306 3.2 6.4 0.00 0.00 0.00 85 1017.9
20260901130636 25 306 3.2 6.4 0.00 0.00 0.00 85 1017.8
20260901130535 25 306 3.2 6.4 0.00 0.00 0.00 86 1017.9
20260901130435 25 304 3.2 6.4 0.00 0.00 0.00 86 1017.9
20260901130320 25 304 3.2 6.4 0.00 0.00 0.00 86 1017.8
20260901130219 25 360 3.2 4.8 0.00 0.00 0.00 86 1017.8
20260901130120 25 360 3.2 4.8 0.00 0.00 0.00 86 1017.7
20260901130021 25 360 3.2 4.8 0.00 0.00 0.00 86 1017.8
20260901125942 25 360 3.2 4.8 0.00 0.00 0.00 86 1017.8
20260901125823 25 360 3.2 4.8 0.00 0.00 0.00 86 1017.8
20260901125722 25 360 3.2 4.8 0.00 0.00 0.00 86 1017.9
20260901125627 25 360 3.2 4.8 0.00 0.00 0.00 87 1017.8
20260901125527 25 360 3.2 4.8 0.00 0.00 0.00 86 1017.7
20260901125427 25 360 1.6 3.2 0.00 0.00 0.00 87 1017.7
20260901125328 25 360 1.6 3.2 0.00 0.00 0.00 87 1017.7
20260901125228 25 360 3.2 3.2 0.00 0.00 0.00 87 1017.8
20260901125149 25 360 1.6 3.2 0.00 0.00 0.00 87 1017.7
20260901125028 25 360 1.6 3.2 0.00 0.00 0.00 87 1017.7
20260901124933 25 360 1.6 3.2 0.00 0.00 0.00 87 1017.7
20260901124834 25 360 1.6 3.2 0.00 0.00 0.00 87 1017.7
20260901124734 25 360 1.6 3.2 0.00 0.00 0.00 87 1017.7
20260901124635 25 360 1.6 3.2 0.00 0.00 0.00 87 1017.6
20260901124535 25 360 1.6 3.2 0.00 0.00 0.00 88 1017.7
20260901124416 24 360 1.6 3.2 0.00 0.00 0.00 88 1017.6
20260901124321 24 360 1.6 3.2 0.00 0.00 0.00 88 1017.5
20260901124222 24 360 1.6 3.2 0.00 0.00 0.00 88 1017.6
20260901124122 24 360 0.0 3.2 0.00 0.00 0.00 88 1017.6
20260901124023 24 360 0.0 0.0 0.00 0.00 0.00 88 1017.6
20260901123923 24 360 0.0 0.0 0.00 0.00 0.00 88 1017.6
20260901123823 24 360 0.0 0.0 0.00 0.00 0.00 88 1017.5
20260901123728 24 360 0.0 0.0 0.00 0.00 0.00 88 1017.5
20260901123628 24 360 0.0 0.0 0.00 0.00 0.00 88 1017.5
20260901123529 24 360 0.0 0.0 0.00 0.00 0.00 88 1017.5
20260901123429 24 360 0.0 0.0 0.00 0.00 0.00 88 1017.5
20260901123329 24 360 0.0 0.0 0.00 0.00 0.00 88 1017.5
20260901123229 24 360 0.0 0.0 0.00 0.00 0.00 88 1017.5
20260901123130 24 360 0.0 0.0 0.00 0.00 0.00 88 1017.5
20260901123034 24 360 0.0 0.0 0.00 0.00 0.00 87 1017.5
20260901122934 24 360 0.0 0.0 0.00 0.00 0.00 87 1017.4
20260901122817 24 360 0.0 0.0 0.00 0.00 0.00 87 1017.5
20260901122717 24 360 0.0 0.0 0.00 0.00 0.00 87 1017.4
20260901122617 23 360 0.0 0.0 0.00 0.00 0.00 87 1017.4
20260901122518 23 360 0.0 0.0 0.00 0.00 0.00 87 1017.4
20260901122439 24 360 0.0 0.0 0.00 0.00 0.00 87 1017.4
20260901122322 23 360 0.0 1.6 0.00 0.00 0.00 87 1017.4
20260901122223 23 360 0.0 1.6 0.00 0.00 0.00 87 1017.4
20260901122124 24 360 0.0 1.6 0.00 0.00 0.00 87 1017.4
20260901122024 24 360 0.0 1.6 0.00 0.00 0.00 87 1017.4
20260901121925 24 360 0.0 1.6 0.00 0.00 0.00 87 1017.4
20260901121824 24 360 0.0 3.2 0.00 0.00 0.00 87 1017.4
20260901121745 24 360 0.0 3.2 0.00 0.00 0.00 87 1017.4
20260901121625 24 360 0.0 3.2 0.00 0.00 0.00 87 1017.3
20260901121529 24 360 0.0 3.2 0.00 0.00 0.00 87 1017.4
20260901121450 24 360 0.0 3.2 0.00 0.00 0.00 87 1017.3
20260901121330 24 360 0.0 3.2 0.00 0.00 0.00 87 1017.4
20260901121231 24 360 0.0 3.2 0.00 0.00 0.00 87 1017.3
20260901121131 24 360 0.0 3.2 0.00 0.00 0.00 87 1017.4
20260901121031 24 360 0.0 3.2 0.00 0.00 0.00 87 1017.4
20260901120916 24 360 0.0 3.2 0.00 0.00 0.00 87 1017.4
20260901120816 24 360 0.0 1.6 0.00 0.00 0.00 87 1017.3
20260901120717 24 360 0.0 0.0 0.00 0.00 0.00 87 1017.4
20260901120617 24 360 0.0 0.0 0.00 0.00 0.00 87 1017.4
20260901120518 24 360 0.0 0.0 0.00 0.00 0.00 87 1017.4
20260901120438 24 360 0.0 0.0 0.00 0.00 0.00 87 1017.4
20260901120319 24 360 0.0 0.0 0.00 0.00 0.00 87 1017.4
20260901120224 24 360 0.0 0.0 0.00 0.00 0.00 87 1017.4
20260901120124 24 360 0.0 3.2 0.00 0.00 0.00 87 1017.4
20260901120044 24 360 0.0 3.2 0.00 0.00 0.00 87 1017.3
20260901115923 24 360 0.0 3.2 0.00 0.00 0.00 87 1017.4
20260901115846 24 360 0.0 3.2 0.00 0.00 0.00 87 1017.4
20260901115744 24 360 0.0 3.2 0.00 0.00 0.00 87 1017.4
20260901115624 24 360 0.0 3.2 0.00 0.00 0.00 87 1017.4
20260901115525 24 360 0.0 3.2 0.00 0.00 0.00 86 1017.4
20260901115429 24 360 1.6 3.2 0.00 0.00 0.00 86 1017.4
20260901115330 24 360 1.6 3.2 0.00 0.00 0.00 86 1017.4
20260901115250 24 360 1.6 3.2 0.00 0.00 0.00 86 1017.4
20260901115130 24 360 1.6 3.2 0.00 0.00 0.00 86 1017.4
20260901115030 24 360 1.6 3.2 0.00 0.00 0.00 86 1017.4
20260901114930 24 360 1.6 3.2 0.00 0.00 0.00 86 1017.4
20260901114831 24 360 1.6 3.2 0.00 0.00 0.00 86 1017.5
20260901114735 24 360 1.6 3.2 0.00 0.00 0.00 86 1017.4
20260901114635 24 360 1.6 3.2 0.00 0.00 0.00 86 1017.4
20260901114516 24 360 1.6 3.2 0.00 0.00 0.00 86 1017.4
20260901114417 24 360 3.2 3.2 0.00 0.00 0.00 86 1017.4
20260901114317 24 360 3.2 3.2 0.00 0.00 0.00 86 1017.4
20260901114217 24 360 3.2 3.2 0.00 0.00 0.00 86 1017.3
20260901114122 24 360 1.6 3.2 0.00 0.00 0.00 86 1017.4
20260901114023 24 360 1.6 3.2 0.00 0.00 0.00 86 1017.3
20260901113924 24 360 1.6 3.2 0.00 0.00 0.00 86 1017.4
20260901113825 24 360 1.6 3.2 0.00 0.00 0.00 86 1017.3
20260901113726 24 360 1.6 3.2 0.00 0.00 0.00 86 1017.3
20260901113627 24 360 1.6 3.2 0.00 0.00 0.00 86 1017.3
20260901113529 24 360 1.6 3.2 0.00 0.00 0.00 86 1017.3
20260901113454 24 360 1.6 3.2 0.00 0.00 0.00 86 1017.3
20260901113353 24 360 1.6 3.2 0.00 0.00 0.00 86 1017.3
20260901113252 24 360 1.6 3.2 0.00 0.00 0.00 87 1017.3
20260901113132 24 360 1.6 3.2 0.00 0.00 0.00 86 1017.3
20260901113032 24 360 1.6 3.2 0.00 0.00 0.00 86 1017.2
20260901112932 24 360 1.6 3.2 0.00 0.00 0.00 86 1017.3
20260901112853 24 360 1.6 3.2 0.00 0.00 0.00 86 1017.3
20260901112732 24 360 3.2 3.2 0.00 0.00 0.00 86 1017.2
20260901112637 24 360 3.2 3.2 0.00 0.00 0.00 86 1017.3
20260901112517 24 360 3.2 3.2 0.00 0.00 0.00 86 1017.3
20260901112417 25 360 1.6 3.2 0.00 0.00 0.00 86 1017.2
20260901112317 25 360 1.6 3.2 0.00 0.00 0.00 86 1017.2
20260901112239 25 360 0.0 3.2 0.00 0.00 0.00 86 1017.2
20260901112118 25 360 0.0 3.2 0.00 0.00 0.00 86 1017.1
20260901112019 25 360 0.0 3.2 0.00 0.00 0.00 86 1017.3
20260901111940 25 360 0.0 3.2 0.00 0.00 0.00 86 1017.2
20260901111823 25 360 1.6 3.2 0.00 0.00 0.00 86 1017.1
20260901111744 25 360 1.6 3.2 0.00 0.00 0.00 86 1017.2
20260901111623 25 360 1.6 3.2 0.00 0.00 0.00 86 1017.2
20260901111544 25 360 1.6 3.2 0.00 0.00 0.00 86 1017.2
20260901111443 25 360 1.6 3.2 0.00 0.00 0.00 86 1017.2
20260901111323 25 360 0.0 3.2 0.00 0.00 0.00 86 1017.2
20260901111224 25 360 0.0 3.2 0.00 0.00 0.00 86 1017.2
20260901111144 25 360 0.0 3.2 0.00 0.00 0.00 86 1017.2
20260901111044 25 360 0.0 3.2 0.00 0.00 0.00 86 1017.2
20260901110927 25 360 0.0 3.2 0.00 0.00 0.00 86 1017.2
20260901110827 25 360 0.0 3.2 0.00 0.00 0.00 86 1017.2
20260901110728 25 360 1.6 3.2 0.00 0.00 0.00 86 1017.2
20260901110629 25 360 0.0 3.2 0.00 0.00 0.00 86 1017.2
20260901110529 25 360 0.0 3.2 0.00 0.00 0.00 86 1017.2
20260901110429 25 360 0.0 3.2 0.00 0.00 0.00 86 1017.2
20260901110350 25 360 0.0 3.2 0.00 0.00 0.00 86 1017.1
20260901110233 25 360 0.0 3.2 0.00 0.00 0.00 86 1017.1
20260901110133 25 360 0.0 3.2 0.00 0.00 0.00 86 1017.1
20260901110054 25 360 0.0 3.2 0.00 0.00 0.00 86 1017.1
20260901105933 25 360 1.6 3.2 0.00 0.00 0.00 86 1017.1
20260901105836 25 360 1.6 3.2 0.00 0.00 0.00 86 1017.1
20260901105735 25 360 1.6 3.2 0.00 0.00 0.00 86 1017.1
20260901105618 25 360 1.6 4.8 0.00 0.00 0.00 86 1017.1
20260901105519 25 360 1.6 8.0 0.00 0.00 0.00 86 1017.1
20260901105419 25 360 1.6 8.0 0.00 0.00 0.00 86 1017.0
20260901105320 25 360 0.0 8.0 0.00 0.00 0.00 86 1017.0
20260901105221 25 360 0.0 8.0 0.00 0.00 0.00 86 1017.1
20260901105122 25 360 0.0 8.0 0.00 0.00 0.00 86 1017.1
20260901105023 25 360 1.6 8.0 0.00 0.00 0.00 86 1017.1
20260901104928 25 360 1.6 8.0 0.00 0.00 0.00 86 1017.1
20260901104828 25 360 3.2 8.0 0.00 0.00 0.00 86 1017.1
20260901104729 25 360 3.2 8.0 0.00 0.00 0.00 86 1017.1
20260901104629 25 360 3.2 8.0 0.00 0.00 0.00 86 1017.1
20260901104531 25 360 3.2 8.0 0.00 0.00 0.00 86 1017.1
20260901104431 25 360 3.2 8.0 0.00 0.00 0.00 86 1017.0
20260901104332 25 360 3.2 8.0 0.00 0.00 0.00 86 1017.0
20260901104235 25 360 3.2 8.0 0.00 0.00 0.00 86 1017.0
20260901104116 25 360 3.2 8.0 0.00 0.00 0.00 86 1017.0
20260901104017 25 360 3.2 6.4 0.00 0.00 0.00 86 1017.1
20260901103918 25 360 3.2 6.4 0.00 0.00 0.00 86 1017.1
20260901103818 25 360 3.2 6.4 0.00 0.00 0.00 86 1017.1
20260901103719 25 360 3.2 6.4 0.00 0.00 0.00 86 1017.1
20260901103625 25 360 3.2 6.4 0.00 0.00 0.00 86 1017.0
20260901103525 25 360 3.2 6.4 0.00 0.00 0.00 86 1017.1
20260901103425 25 360 3.2 6.4 0.00 0.00 0.00 86 1017.1
20260901103326 25 360 3.2 8.0 0.00 0.00 0.00 86 1016.9
20260901103226 25 360 1.6 8.0 0.00 0.00 0.00 86 1017.0
20260901103127 25 360 1.6 8.0 0.00 0.00 0.00 86 1017.0
20260901103027 25 360 1.6 8.0 0.00 0.00 0.00 86 1017.0
20260901102932 25 360 1.6 8.0 0.00 0.00 0.00 85 1017.0
20260901102834 25 360 1.6 8.0 0.00 0.00 0.00 85 1017.0
20260901102734 25 360 3.2 8.0 0.00 0.00 0.00 85 1017.1
20260901102655 25 360 3.2 8.0 0.00 0.00 0.00 85 1017.1
20260901102555 25 360 3.2 8.0 0.00 0.00 0.00 85 1017.0
20260901102434 25 360 1.6 8.0 0.00 0.00 0.00 85 1017.0
20260901102334 25 360 3.2 8.0 0.00 0.00 0.00 85 1017.0
20260901102241 25 360 3.2 8.0 0.00 0.00 0.00 85 1017.0
20260901102121 25 360 4.8 8.0 0.00 0.00 0.00 85 1017.1
20260901102021 25 360 3.2 8.0 0.00 0.00 0.00 85 1017.0
20260901101921 25 360 3.2 8.0 0.00 0.00 0.00 85 1017.0
20260901101823 25 360 3.2 6.4 0.00 0.00 0.00 85 1017.1
20260901101744 25 360 3.2 6.4 0.00 0.00 0.00 85 1017.0
20260901101624 25 360 3.2 6.4 0.00 0.00 0.00 85 1017.0
20260901101528 25 360 1.6 6.4 0.00 0.00 0.00 85 1017.1
20260901101429 25 360 1.6 6.4 0.00 0.00 0.00 85 1017.0
20260901101329 25 360 1.6 6.4 0.00 0.00 0.00 85 1017.1
20260901101250 25 360 1.6 6.4 0.00 0.00 0.00 84 1017.0
20260901101130 25 360 1.6 6.4 0.00 0.00 0.00 84 1017.0
20260901101051 25 360 3.2 9.7 0.00 0.00 0.00 84 1017.0
20260901100930 25 360 3.2 9.7 0.00 0.00 0.00 84 1017.0
20260901100831 25 360 3.2 9.7 0.00 0.00 0.00 84 1017.0
20260901100735 25 360 3.2 9.7 0.00 0.00 0.00 84 1017.0
20260901100636 25 360 3.2 9.7 0.00 0.00 0.00 84 1017.1
20260901100534 25 360 1.6 9.7 0.00 0.00 0.00 84 1017.0
20260901100434 25 360 1.6 9.7 0.00 0.00 0.00 84 1017.1
20260901100334 25 360 1.6 9.7 0.00 0.00 0.00 84 1017.0
20260901100235 25 360 1.6 9.7 0.00 0.00 0.00 84 1017.1
20260901100120 25 360 4.8 9.7 0.00 0.00 0.00 84 1017.1
20260901100020 25 360 4.8 9.7 0.00 0.00 0.00 84 1017.1
20260901095921 25 360 3.2 8.0 0.00 0.00 0.00 85 1017.2
20260901095823 25 360 3.2 8.0 0.00 0.00 0.00 85 1017.2
20260901095722 25 360 1.6 4.8 0.00 0.00 0.00 84 1017.2
20260901095623 25 360 1.6 4.8 0.00 0.00 0.00 84 1017.2
20260901095524 25 360 1.6 4.8 0.00 0.00 0.00 84 1017.2
20260901095426 25 188 1.6 8.0 0.00 0.00 0.00 84 1017.2
20260901095347 25 360 3.2 8.0 0.00 0.00 0.00 84 1017.3
20260901095227 25 360 1.6 8.0 0.00 0.00 0.00 84 1017.2
20260901095128 25 360 1.6 8.0 0.00 0.00 0.00 84 1017.3
20260901095029 25 360 1.6 8.0 0.00 0.00 0.00 84 1017.2
20260901094948 25 360 1.6 8.0 0.00 0.00 0.00 84 1017.2
20260901094828 25 360 3.2 8.0 0.00 0.00 0.00 84 1017.3
20260901094728 25 360 4.8 8.0 0.00 0.00 0.00 84 1017.3
20260901094633 25 360 3.2 9.7 0.00 0.00 0.00 84 1017.3
20260901094554 25 360 3.2 9.7 0.00 0.00 0.00 84 1017.3
20260901094433 25 360 3.2 9.7 0.00 0.00 0.00 84 1017.3
20260901094333 25 360 3.2 9.7 0.00 0.00 0.00 84 1017.3
20260901094235 25 360 3.2 9.7 0.00 0.00 0.00 84 1017.3
20260901094135 25 360 3.2 9.7 0.00 0.00 0.00 84 1017.3
20260901094020 25 360 3.2 9.7 0.00 0.00 0.00 84 1017.3
20260901093919 25 360 4.8 9.7 0.00 0.00 0.00 84 1017.3
20260901093820 25 360 3.2 8.0 0.00 0.00 0.00 84 1017.3
20260901093742 25 360 3.2 8.0 0.00 0.00 0.00 84 1017.4
20260901093621 25 360 3.2 8.0 0.00 0.00 0.00 83 1017.3
20260901093521 25 360 3.2 8.0 0.00 0.00 0.00 83 1017.4
20260901093423 25 360 4.8 8.0 0.00 0.00 0.00 83 1017.4
20260901093322 25 360 6.4 8.0 0.00 0.00 0.00 83 1017.4
20260901093227 25 360 4.8 8.0 0.00 0.00 0.00 83 1017.4
20260901093148 25 360 4.8 8.0 0.00 0.00 0.00 83 1017.4
20260901093028 25 360 4.8 8.0 0.00 0.00 0.00 83 1017.4
20260901092948 25 360 3.2 8.0 0.00 0.00 0.00 83 1017.4
20260901092829 25 360 3.2 8.0 0.00 0.00 0.00 83 1017.4
20260901092748 25 360 3.2 8.0 0.00 0.00 0.00 83 1017.4
20260901092627 25 360 3.2 8.0 0.00 0.00 0.00 83 1017.4
20260901092528 25 360 1.6 8.0 0.00 0.00 0.00 83 1017.4
20260901092449 25 360 1.6 8.0 0.00 0.00 0.00 83 1017.4
20260901092332 25 360 3.2 9.7 0.00 0.00 0.00 83 1017.3
20260901092232 25 360 3.2 9.7 0.00 0.00 0.00 83 1017.4
20260901092133 25 360 3.2 9.7 0.00 0.00 0.00 83 1017.4
20260901092033 25 360 3.2 9.7 0.00 0.00 0.00 83 1017.4
20260901091934 25 360 3.2 9.7 0.00 0.00 0.00 83 1017.5
20260901091854 25 360 3.2 9.7 0.00 0.00 0.00 83 1017.4
20260901091717 25 360 4.8 9.7 0.00 0.00 0.00 83 1017.4
20260901091618 25 360 4.8 9.7 0.00 0.00 0.00 83 1017.3
20260901091519 25 360 4.8 9.7 0.00 0.00 0.00 83 1017.4
20260901091419 25 360 4.8 9.7 0.00 0.00 0.00 83 1017.4
20260901091319 25 360 4.8 9.7 0.00 0.00 0.00 83 1017.4
20260901091219 25 360 4.8 9.7 0.00 0.00 0.00 83 1017.4
20260901091120 25 360 3.2 9.7 0.00 0.00 0.00 83 1017.3
20260901091044 25 360 4.8 9.7 0.00 0.00 0.00 83 1017.4
20260901090944 25 360 4.8 9.7 0.00 0.00 0.00 83 1017.3
20260901090843 25 360 3.2 9.7 0.00 0.00 0.00 83 1017.3
20260901090723 25 360 3.2 9.7 0.00 0.00 0.00 83 1017.3
20260901090624 25 360 4.8 9.7 0.00 0.00 0.00 83 1017.2
20260901090524 25 360 3.2 9.7 0.00 0.00 0.00 83 1017.3
20260901090425 25 360 3.2 9.7 0.00 0.00 0.00 83 1017.3
20260901090326 26 360 4.8 9.7 0.00 0.00 0.00 83 1017.3
20260901090231 26 360 4.8 9.7 0.00 0.00 0.00 83 1017.3
20260901090132 26 360 3.2 9.7 0.00 0.00 0.00 82 1017.2
20260901090031 26 360 3.2 9.7 0.00 0.00 0.00 82 1017.3
20260901085932 26 360 3.2 9.7 0.00 0.00 0.00 82 1017.3
20260901085834 26 360 3.2 9.7 0.00 0.00 0.00 82 1017.3
20260901085734 26 360 3.2 12.9 0.00 0.00 0.00 82 1017.3
20260901085638 26 360 1.6 12.9 0.00 0.00 0.00 82 1017.3
20260901085517 26 360 3.2 12.9 0.00 0.00 0.00 82 1017.2
20260901085418 26 360 3.2 12.9 0.00 0.00 0.00 82 1017.2
20260901085319 26 360 3.2 12.9 0.00 0.00 0.00 82 1017.2
20260901085219 26 360 3.2 12.9 0.00 0.00 0.00 82 1017.2
20260901085120 26 360 3.2 12.9 0.00 0.00 0.00 82 1017.2
20260901085020 26 360 4.8 12.9 0.00 0.00 0.00 82 1017.2
20260901084925 26 360 4.8 12.9 0.00 0.00 0.00 82 1017.1
20260901084827 26 360 3.2 12.9 0.00 0.00 0.00 82 1017.1
20260901084747 26 360 3.2 9.7 0.00 0.00 0.00 82 1017.1
20260901084627 26 360 3.2 9.7 0.00 0.00 0.00 83 1017.1
20260901084547 26 360 3.2 9.7 0.00 0.00 0.00 83 1017.1
20260901084427 26 360 3.2 14.5 0.00 0.00 0.00 83 1017.1
20260901084327 26 360 4.8 16.1 0.00 0.00 0.00 83 1017.1
20260901084232 26 360 6.4 16.1 0.00 0.00 0.00 83 1017.1
20260901084133 26 360 6.4 16.1 0.00 0.00 0.00 82 1017.0
20260901084033 26 360 4.8 16.1 0.00 0.00 0.00 82 1017.0
20260901083954 26 360 4.8 16.1 0.00 0.00 0.00 82 1017.0
20260901083833 26 360 4.8 16.1 0.00 0.00 0.00 82 1017.0
20260901083734 26 360 4.8 16.1 0.00 0.00 0.00 82 1017.1
20260901083633 26 360 6.4 16.1 0.00 0.00 0.00 82 1017.1
20260901083538 26 360 8.0 16.1 0.00 0.00 0.00 82 1017.1
20260901083417 26 360 8.0 16.1 0.00 0.00 0.00 82 1017.1
20260901083318 26 360 8.0 16.1 0.00 0.00 0.00 82 1017.1
20260901083218 26 360 4.8 16.1 0.00 0.00 0.00 82 1017.0
20260901083119 26 360 4.8 16.1 0.00 0.00 0.00 82 1017.1
20260901083018 26 360 4.8 16.1 0.00 0.00 0.00 82 1017.1
20260901082918 26 360 6.4 16.1 0.00 0.00 0.00 82 1017.2
20260901082824 26 360 8.0 16.1 0.00 0.00 0.00 82 1017.1
20260901082723 26 360 8.0 16.1 0.00 0.00 0.00 82 1017.2
20260901082643 26 360 8.0 16.1 0.00 0.00 0.00 82 1017.1
20260901082522 26 360 8.0 14.5 0.00 0.00 0.00 82 1017.1
20260901082423 26 360 9.7 14.5 0.00 0.00 0.00 82 1017.1
20260901082324 26 360 9.7 14.5 0.00 0.00 0.00 82 1017.1
20260901082225 26 360 8.0 12.9 0.00 0.00 0.00 82 1017.2
20260901082145 26 360 6.4 12.9 0.00 0.00 0.00 81 1017.1
20260901082028 26 360 6.4 12.9 0.00 0.00 0.00 81 1017.1
20260901081928 26 360 6.4 12.9 0.00 0.00 0.00 81 1017.1
20260901081829 26 360 6.4 12.9 0.00 0.00 0.00 81 1017.0
20260901081730 26 360 6.4 11.3 0.00 0.00 0.00 81 1017.1
20260901081629 26 360 4.8 12.9 0.00 0.00 0.00 81 1017.1
20260901081530 26 360 3.2 9.7 0.00 0.00 0.00 81 1017.1
20260901081435 26 360 1.6 9.7 0.00 0.00 0.00 81 1017.0
20260901081316 26 360 1.6 12.9 0.00 0.00 0.00 81 1017.1
20260901081217 26 360 3.2 12.9 0.00 0.00 0.00 81 1017.1
20260901081116 26 360 4.8 12.9 0.00 0.00 0.00 81 1017.1
20260901081017 26 360 6.4 12.9 0.00 0.00 0.00 81 1017.1
20260901080919 26 360 6.4 12.9 0.00 0.00 0.00 81 1017.1
20260901080824 26 360 4.8 12.9 0.00 0.00 0.00 81 1017.1
20260901080724 26 360 6.4 12.9 0.00 0.00 0.00 81 1017.1
20260901080644 26 360 6.4 12.9 0.00 0.00 0.00 81 1017.1
20260901080525 26 360 6.4 12.9 0.00 0.00 0.00 81 1017.1
20260901080424 26 360 6.4 17.7 0.00 0.00 0.00 81 1017.1
20260901080325 26 360 4.8 17.7 0.00 0.00 0.00 81 1017.1
20260901080225 26 360 4.8 17.7 0.00 0.00 0.00 80 1017.2
20260901080130 26 360 4.8 17.7 0.00 0.00 0.00 80 1017.1
20260901080030 26 360 6.4 17.7 0.00 0.00 0.00 80 1017.2
20260901075931 26 360 6.4 17.7 0.00 0.00 0.00 80 1017.3
20260901075832 26 360 8.0 17.7 0.00 0.00 0.00 80 1017.2
20260901075731 26 360 9.7 17.7 0.00 0.00 0.00 80 1017.2
20260901075630 26 360 9.7 17.7 0.00 0.00 0.00 80 1017.2
20260901075531 26 360 6.4 16.1 0.00 0.00 0.00 80 1017.3
20260901075432 26 360 6.4 16.1 0.00 0.00 0.00 80 1017.2
20260901075316 26 360 8.0 16.1 0.00 0.00 0.00 80 1017.2
20260901075217 26 360 8.0 16.1 0.00 0.00 0.00 80 1017.2
20260901075117 26 360 8.0 16.1 0.00 0.00 0.00 80 1017.2
20260901075018 26 360 9.7 16.1 0.00 0.00 0.00 80 1017.2
20260901074919 26 360 9.7 16.1 0.00 0.00 0.00 80 1017.3
20260901074819 26 184 8.0 16.1 0.00 0.00 0.00 80 1017.2
20260901074724 26 360 8.0 14.5 0.00 0.00 0.00 79 1017.2
20260901074624 26 360 8.0 14.5 0.00 0.00 0.00 79 1017.2
20260901074524 26 360 8.0 14.5 0.00 0.00 0.00 79 1017.1
20260901074424 26 360 8.0 14.5 0.00 0.00 0.00 79 1017.3
20260901074326 26 360 6.4 14.5 0.00 0.00 0.00 79 1017.3
20260901074247 26 360 8.0 14.5 0.00 0.00 0.00 79 1017.2
20260901074126 26 360 4.8 12.9 0.00 0.00 0.00 79 1017.2
20260901074047 26 360 6.4 12.9 0.00 0.00 0.00 79 1017.2
20260901073930 26 360 4.8 12.9 0.00 0.00 0.00 79 1017.2
20260901073830 26 360 3.2 12.9 0.00 0.00 0.00 78 1017.1
20260901073730 26 360 4.8 12.9 0.00 0.00 0.00 78 1017.1
20260901073631 26 360 4.8 12.9 0.00 0.00 0.00 78 1017.2
20260901073531 26 360 6.4 12.9 0.00 0.00 0.00 78 1017.2
20260901073432 26 360 4.8 12.9 0.00 0.00 0.00 78 1017.3
20260901073316 26 360 4.8 12.9 0.00 0.00 0.00 77 1017.3
20260901073236 26 360 4.8 12.9 0.00 0.00 0.00 77 1017.3
20260901073116 26 360 4.8 12.9 0.00 0.00 0.00 77 1017.3
20260901073018 26 360 4.8 12.9 0.00 0.00 0.00 77 1017.2
20260901072938 26 360 4.8 12.9 0.00 0.00 0.00 77 1017.3
20260901072819 26 360 4.8 12.9 0.00 0.00 0.00 77 1017.3
20260901072719 26 360 4.8 12.9 0.00 0.00 0.00 77 1017.3
20260901072623 26 360 4.8 12.9 0.00 0.00 0.00 77 1017.3
20260901072521 26 360 4.8 12.9 0.00 0.00 0.00 77 1017.3
20260901072442 26 360 6.4 12.9 0.00 0.00 0.00 76 1017.2
20260901072322 26 360 6.4 12.9 0.00 0.00 0.00 76 1017.3
20260901072223 26 360 6.4 12.9 0.00 0.00 0.00 76 1017.3
20260901072123 26 360 4.8 9.7 0.00 0.00 0.00 76 1017.2
20260901072024 26 360 6.4 9.7 0.00 0.00 0.00 76 1017.3
20260901071929 26 360 6.4 12.9 0.00 0.00 0.00 76 1017.2
20260901071830 26 360 6.4 12.9 0.00 0.00 0.00 76 1017.2
20260901071730 26 360 4.8 12.9 0.00 0.00 0.00 76 1017.2
20260901071632 26 360 4.8 12.9 0.00 0.00 0.00 76 1017.3
20260901071533 26 360 4.8 12.9 0.00 0.00 0.00 76 1017.3
20260901071431 26 360 4.8 12.9 0.00 0.00 0.00 76 1017.3
20260901071332 26 360 4.8 12.9 0.00 0.00 0.00 75 1017.3
20260901071217 27 360 4.8 12.9 0.00 0.00 0.00 75 1017.2
20260901071117 27 360 6.4 12.9 0.00 0.00 0.00 75 1017.2
20260901071038 27 360 6.4 14.5 0.00 0.00 0.00 75 1017.2
20260901070918 27 360 4.8 14.5 0.00 0.00 0.00 75 1017.3
20260901070817 27 360 3.2 14.5 0.00 0.00 0.00 75 1017.3
20260901070738 27 360 3.2 14.5 0.00 0.00 0.00 75 1017.2
20260901070618 27 360 4.8 14.5 0.00 0.00 0.00 75 1017.3
20260901070522 27 360 6.4 14.5 0.00 0.00 0.00 75 1017.3
20260901070423 27 360 6.4 14.5 0.00 0.00 0.00 75 1017.3
20260901070324 27 360 6.4 14.5 0.00 0.00 0.00 75 1017.2
20260901070224 27 360 6.4 14.5 0.00 0.00 0.00 75 1017.2
20260901070125 27 360 6.4 14.5 0.00 0.00 0.00 75 1017.2
20260901070025 27 360 4.8 14.5 0.00 0.00 0.00 75 1017.2
20260901065945 27 360 4.8 12.9 0.00 0.00 0.00 74 1017.2
20260901065845 27 360 4.8 12.9 0.00 0.00 0.00 74 1017.2
20260901065728 27 360 4.8 12.9 0.00 0.00 0.00 74 1017.1
20260901065628 27 360 4.8 17.7 0.00 0.00 0.00 74 1017.1
20260901065529 27 360 6.4 17.7 0.00 0.00 0.00 74 1017.1
20260901065430 27 360 6.4 17.7 0.00 0.00 0.00 74 1017.1
20260901065331 27 360 6.4 17.7 0.00 0.00 0.00 74 1017.1
20260901065232 27 360 8.0 17.7 0.00 0.00 0.00 74 1017.1
20260901065131 27 360 8.0 17.7 0.00 0.00 0.00 74 1017.1
20260901065056 27 360 9.7 17.7 0.00 0.00 0.00 74 1017.1
20260901064934 27 360 9.7 17.7 0.00 0.00 0.00 74 1017.1
20260901064835 27 360 9.7 17.7 0.00 0.00 0.00 74 1017.0
20260901064716 27 360 9.7 17.7 0.00 0.00 0.00 73 1017.1
20260901064615 27 360 9.7 17.7 0.00 0.00 0.00 73 1017.1
20260901064517 27 360 8.0 17.7 0.00 0.00 0.00 73 1017.0
20260901064420 27 360 8.0 17.7 0.00 0.00 0.00 73 1017.1
20260901064321 27 360 9.7 17.7 0.00 0.00 0.00 73 1017.1
20260901064222 27 360 9.7 17.7 0.00 0.00 0.00 73 1017.1
20260901064143 27 360 9.7 17.7 0.00 0.00 0.00 73 1017.0
20260901064016 27 360 6.4 16.1 0.00 0.00 0.00 73 1017.1
20260901063916 27 360 6.4 16.1 0.00 0.00 0.00 73 1017.1
20260901063817 27 360 9.7 16.1 0.00 0.00 0.00 73 1017.1
20260901063742 27 360 9.7 16.1 0.00 0.00 0.00 73 1017.1
20260901063621 27 360 9.7 16.1 0.00 0.00 0.00 73 1017.2
20260901063541 27 360 9.7 16.1 0.00 0.00 0.00 73 1017.1
20260901063420 27 360 9.7 16.1 0.00 0.00 0.00 73 1017.1
20260901063320 27 360 11.3 16.1 0.00 0.00 0.00 73 1017.2
20260901063241 27 360 9.7 16.1 0.00 0.00 0.00 73 1017.2
20260901063120 27 360 8.0 16.1 0.00 0.00 0.00 73 1017.0
20260901063021 27 360 6.4 16.1 0.00 0.00 0.00 73 1017.2
20260901062924 27 360 8.0 20.9 0.00 0.00 0.00 73 1017.2
20260901062826 27 360 9.7 20.9 0.00 0.00 0.00 73 1017.1
20260901062726 27 360 9.7 20.9 0.00 0.00 0.00 73 1017.1
20260901062626 27 360 9.7 20.9 0.00 0.00 0.00 73 1017.1
20260901062527 27 360 8.0 20.9 0.00 0.00 0.00 72 1017.1
20260901062427 27 360 6.4 20.9 0.00 0.00 0.00 72 1017.1
20260901062332 27 360 8.0 20.9 0.00 0.00 0.00 72 1017.0
20260901062232 27 360 9.7 20.9 0.00 0.00 0.00 72 1017.0
20260901062133 27 360 11.3 20.9 0.00 0.00 0.00 72 1017.0
20260901062032 27 360 11.3 19.3 0.00 0.00 0.00 72 1017.0
20260901061931 27 360 11.3 19.3 0.00 0.00 0.00 72 1016.9
20260901061852 27 360 11.3 19.3 0.00 0.00 0.00 72 1016.9
20260901061733 27 360 9.7 19.3 0.00 0.00 0.00 72 1016.9
20260901061618 27 360 8.0 19.3 0.00 0.00 0.00 72 1016.9
20260901061538 27 360 6.4 19.3 0.00 0.00 0.00 72 1016.9
20260901061417 27 360 9.7 22.5 0.00 0.00 0.00 72 1016.9
20260901061317 27 360 11.3 22.5 0.00 0.00 0.00 72 1016.9
20260901061219 27 360 12.9 22.5 0.00 0.00 0.00 72 1016.9
20260901061119 27 360 12.9 22.5 0.00 0.00 0.00 72 1016.9
20260901061018 27 360 12.9 22.5 0.00 0.00 0.00 72 1016.9
20260901060918 27 360 12.9 22.5 0.00 0.00 0.00 72 1016.9
20260901060823 27 360 12.9 22.5 0.00 0.00 0.00 72 1016.9
20260901060724 28 360 12.9 22.5 0.00 0.00 0.00 72 1016.9
20260901060622 27 360 11.3 22.5 0.00 0.00 0.00 72 1016.8
20260901060522 28 360 9.7 20.9 0.00 0.00 0.00 71 1016.8
20260901060422 28 360 9.7 20.9 0.00 0.00 0.00 71 1016.7
20260901060343 28 360 9.7 20.9 0.00 0.00 0.00 71 1016.7
20260901060222 28 360 9.7 20.9 0.00 0.00 0.00 71 1016.7
20260901060122 28 360 9.7 20.9 0.00 0.00 0.00 71 1016.7
20260901060026 28 360 8.0 20.9 0.00 0.00 0.00 71 1016.7
20260901055926 28 360 6.4 20.9 0.00 0.00 0.00 71 1016.8
20260901055828 28 360 8.0 25.7 0.00 0.00 0.00 71 1016.7
20260901055728 28 360 9.7 25.7 0.00 0.00 0.00 71 1016.7
20260901055628 28 360 9.7 25.7 0.00 0.00 0.00 71 1016.7
20260901055528 28 360 11.3 25.7 0.00 0.00 0.00 71 1016.7
20260901055432 28 360 9.7 25.7 0.00 0.00 0.00 70 1016.7
20260901055333 28 360 11.3 25.7 0.00 0.00 0.00 70 1016.6
20260901055234 28 360 14.5 25.7 0.00 0.00 0.00 70 1016.7
20260901055154 28 360 12.9 25.7 0.00 0.00 0.00 70 1016.7
20260901055053 28 360 12.9 25.7 0.00 0.00 0.00 70 1016.8
20260901054932 28 360 11.3 24.1 0.00 0.00 0.00 70 1016.8
20260901054833 28 360 14.5 24.1 0.00 0.00 0.00 70 1016.8
20260901054753 28 360 16.1 24.1 0.00 0.00 0.00 70 1016.8
20260901054618 28 360 14.5 24.1 0.00 0.00 0.00 70 1016.7
20260901054538 28 360 14.5 24.1 0.00 0.00 0.00 70 1016.8
20260901054417 28 360 12.9 24.1 0.00 0.00 0.00 70 1016.7
20260901054337 28 360 12.9 24.1 0.00 0.00 0.00 70 1016.7
20260901054217 28 360 14.5 24.1 0.00 0.00 0.00 70 1016.8
20260901054137 28 360 14.5 24.1 0.00 0.00 0.00 70 1016.8
20260901054037 28 360 12.9 24.1 0.00 0.00 0.00 70 1016.8
20260901053958 28 360 12.9 24.1 0.00 0.00 0.00 70 1016.8
20260901053857 28 360 12.9 24.1 0.00 0.00 0.00 70 1016.8
20260901053720 28 360 11.3 24.1 0.00 0.00 0.00 70 1016.8
20260901053621 28 360 11.3 27.4 0.00 0.00 0.00 69 1016.7
20260901053522 28 360 11.3 27.4 0.00 0.00 0.00 69 1016.7
20260901053423 28 360 9.7 27.4 0.00 0.00 0.00 69 1016.8
20260901053324 28 360 8.0 27.4 0.00 0.00 0.00 70 1016.7
20260901053224 28 360 8.0 27.4 0.00 0.00 0.00 69 1016.8
20260901053124 28 360 11.3 27.4 0.00 0.00 0.00 70 1016.8
20260901053047 28 360 12.9 27.4 0.00 0.00 0.00 70 1016.7
20260901052927 28 360 12.9 27.4 0.00 0.00 0.00 70 1016.8
20260901052828 28 360 14.5 27.4 0.00 0.00 0.00 70 1016.8
20260901052727 28 360 11.3 27.4 0.00 0.00 0.00 70 1016.7
20260901052629 28 360 11.3 27.4 0.00 0.00 0.00 70 1016.8
20260901052529 28 360 9.7 25.7 0.00 0.00 0.00 70 1016.8
20260901052450 28 360 11.3 25.7 0.00 0.00 0.00 70 1016.8
20260901052333 28 360 11.3 25.7 0.00 0.00 0.00 70 1016.7
20260901052234 28 360 9.7 25.7 0.00 0.00 0.00 70 1016.7
20260901052134 28 360 9.7 25.7 0.00 0.00 0.00 70 1016.7
20260901052035 28 360 9.7 25.7 0.00 0.00 0.00 70 1016.7
20260901051955 28 360 11.3 25.7 0.00 0.00 0.00 69 1016.7
20260901051835 28 360 11.3 25.7 0.00 0.00 0.00 69 1016.7
20260901051735 28 360 12.9 24.1 0.00 0.00 0.00 69 1016.7
20260901051619 28 360 11.3 24.1 0.00 0.00 0.00 69 1016.6
20260901051541 28 360 8.0 20.9 0.00 0.00 0.00 69 1016.6
20260901051420 28 360 9.7 20.9 0.00 0.00 0.00 69 1016.6
20260901051321 28 360 12.9 20.9 0.00 0.00 0.00 69 1016.6
20260901051221 28 360 12.9 22.5 0.00 0.00 0.00 69 1016.6
20260901051122 28 360 9.7 22.5 0.00 0.00 0.00 69 1016.5
20260901051044 28 360 8.0 22.5 0.00 0.00 0.00 69 1016.6
20260901050922 28 360 6.4 22.5 0.00 0.00 0.00 69 1016.5
20260901050827 28 360 9.7 22.5 0.00 0.00 0.00 69 1016.5
20260901050748 28 360 9.7 22.5 0.00 0.00 0.00 69 1016.5
20260901050627 28 360 12.9 22.5 0.00 0.00 0.00 69 1016.6
20260901050528 28 360 12.9 24.1 0.00 0.00 0.00 69 1016.6
20260901050429 28 360 12.9 24.1 0.00 0.00 0.00 69 1016.6
20260901050329 28 360 12.9 24.1 0.00 0.00 0.00 69 1016.6
20260901050230 28 360 14.5 27.4 0.00 0.00 0.00 69 1016.5
20260901050134 29 360 12.9 27.4 0.00 0.00 0.00 69 1016.5
20260901050055 29 360 12.9 29.0 0.00 0.00 0.00 69 1016.5
20260901045927 29 360 12.9 29.0 0.00 0.00 0.00 69 1016.6
20260901045827 29 360 12.9 29.0 0.00 0.00 0.00 69 1016.5
20260901045746 29 360 12.9 29.0 0.00 0.00 0.00 69 1016.6
20260901045626 29 360 12.9 29.0 0.00 0.00 0.00 69 1016.6
20260901045526 29 360 17.7 29.0 0.00 0.00 0.00 69 1016.7
20260901045427 29 360 17.7 29.0 0.00 0.00 0.00 69 1016.7
20260901045330 29 360 16.1 29.0 0.00 0.00 0.00 69 1016.6
20260901045231 29 360 14.5 29.0 0.00 0.00 0.00 69 1016.7
20260901045152 29 360 14.5 27.4 0.00 0.00 0.00 69 1016.6
20260901045031 29 360 12.9 27.4 0.00 0.00 0.00 69 1016.6
20260901044931 29 360 11.3 27.4 0.00 0.00 0.00 69 1016.5
20260901044831 29 360 9.7 27.4 0.00 0.00 0.00 69 1016.5
20260901044732 29 360 11.3 27.4 0.00 0.00 0.00 69 1016.6
20260901044616 29 360 12.9 27.4 0.00 0.00 0.00 69 1016.5
20260901044537 29 360 14.5 27.4 0.00 0.00 0.00 68 1016.5
20260901044457 29 360 14.5 27.4 0.00 0.00 0.00 68 1016.6
20260901044316 29 360 12.9 24.1 0.00 0.00 0.00 68 1016.5
20260901044217 29 360 12.9 24.1 0.00 0.00 0.00 68 1016.5
20260901044138 29 360 12.9 24.1 0.00 0.00 0.00 68 1016.5
20260901044018 29 360 12.9 24.1 0.00 0.00 0.00 68 1016.5
20260901043938 29 360 12.9 24.1 0.00 0.00 0.00 68 1016.5
20260901043822 29 360 12.9 24.1 0.00 0.00 0.00 68 1016.4
20260901043722 29 360 14.5 24.1 0.00 0.00 0.00 68 1016.4
20260901043623 29 360 14.5 24.1 0.00 0.00 0.00 68 1016.5
20260901043544 29 360 12.9 24.1 0.00 0.00 0.00 68 1016.5
20260901043443 29 360 11.3 22.5 0.00 0.00 0.00 68 1016.5
20260901043322 29 360 11.3 22.5 0.00 0.00 0.00 68 1016.5
20260901043222 29 360 14.5 22.5 0.00 0.00 0.00 67 1016.4
20260901043127 29 360 17.7 22.5 0.00 0.00 0.00 67 1016.5
20260901043028 29 360 17.7 24.1 0.00 0.00 0.00 67 1016.4
20260901042929 29 360 16.1 27.4 0.00 0.00 0.00 67 1016.5
20260901042831 29 360 14.5 27.4 0.00 0.00 0.00 67 1016.5
20260901042731 29 360 12.9 27.4 0.00 0.00 0.00 67 1016.4
20260901042633 30 360 12.9 27.4 0.00 0.00 0.00 67 1016.5
20260901042517 30 360 12.9 27.4 0.00 0.00 0.00 67 1016.5
20260901042417 30 360 14.5 27.4 0.00 0.00 0.00 67 1016.4
20260901042338 30 360 14.5 27.4 0.00 0.00 0.00 66 1016.4
20260901042218 30 360 12.9 27.4 0.00 0.00 0.00 66 1016.5
20260901042118 30 360 12.9 27.4 0.00 0.00 0.00 66 1016.4
20260901042019 30 360 16.1 27.4 0.00 0.00 0.00 66 1016.5
20260901041919 30 360 17.7 25.7 0.00 0.00 0.00 66 1016.5
20260901041824 30 360 16.1 25.7 0.00 0.00 0.00 66 1016.5
20260901041725 30 360 16.1 25.7 0.00 0.00 0.00 66 1016.4
20260901041625 30 360 16.1 25.7 0.00 0.00 0.00 66 1016.5
20260901041526 30 360 16.1 27.4 0.00 0.00 0.00 66 1016.4
20260901041425 30 360 16.1 27.4 0.00 0.00 0.00 66 1016.4
20260901041326 30 360 14.5 27.4 0.00 0.00 0.00 66 1016.4
20260901041248 30 360 14.5 27.4 0.00 0.00 0.00 66 1016.4
20260901041147 30 360 14.5 27.4 0.00 0.00 0.00 66 1016.4
20260901041030 30 360 14.5 27.4 0.00 0.00 0.00 65 1016.4
20260901040931 30 360 14.5 27.4 0.00 0.00 0.00 65 1016.4
20260901040831 30 360 16.1 27.4 0.00 0.00 0.00 65 1016.5
20260901040755 30 360 17.7 27.4 0.00 0.00 0.00 65 1016.4
20260901040632 30 360 16.1 27.4 0.00 0.00 0.00 65 1016.5
20260901040553 30 360 14.5 27.4 0.00 0.00 0.00 65 1016.4
20260901040431 30 360 12.9 27.4 0.00 0.00 0.00 65 1016.4
20260901040317 30 360 14.5 27.4 0.00 0.00 0.00 65 1016.4
20260901040216 30 360 14.5 27.4 0.00 0.00 0.00 65 1016.4
20260901040116 30 360 14.5 27.4 0.00 0.00 0.00 65 1016.4
20260901040018 30 360 16.1 27.4 0.00 0.00 0.00 65 1016.4
20260901035917 30 360 16.1 27.4 0.00 0.00 0.00 65 1016.4
20260901035819 30 360 16.1 25.7 0.00 0.00 0.00 65 1016.5
20260901035718 30 360 14.5 25.7 0.00 0.00 0.00 65 1016.4
20260901035623 30 360 12.9 25.7 0.00 0.00 0.00 65 1016.5
20260901035522 30 360 11.3 25.7 0.00 0.00 0.00 64 1016.4
20260901035443 30 360 12.9 29.0 0.00 0.00 0.00 64 1016.4
20260901035343 30 360 14.5 29.0 0.00 0.00 0.00 64 1016.4
20260901035222 30 360 16.1 29.0 0.00 0.00 0.00 64 1016.4
20260901035123 30 360 12.9 29.0 0.00 0.00 0.00 64 1016.4
20260901035023 30 360 12.9 29.0 0.00 0.00 0.00 64 1016.5
20260901034922 30 360 12.9 29.0 0.00 0.00 0.00 64 1016.5
20260901034843 30 360 17.7 29.0 0.00 0.00 0.00 64 1016.5
20260901034725 30 360 17.7 29.0 0.00 0.00 0.00 64 1016.4
20260901034627 30 360 16.1 25.7 0.00 0.00 0.00 64 1016.5
20260901034546 30 360 12.9 24.1 0.00 0.00 0.00 64 1016.4
20260901034446 30 360 11.3 24.1 0.00 0.00 0.00 63 1016.4
20260901034326 30 360 11.3 24.1 0.00 0.00 0.00 63 1016.4
20260901034227 30 360 11.3 24.1 0.00 0.00 0.00 63 1016.3
20260901034127 30 360 14.5 24.1 0.00 0.00 0.00 63 1016.3
20260901034031 30 360 14.5 24.1 0.00 0.00 0.00 63 1016.3
20260901033932 30 360 14.5 30.6 0.00 0.00 0.00 63 1016.4
20260901033832 30 360 14.5 30.6 0.00 0.00 0.00 63 1016.3
20260901033753 30 360 14.5 30.6 0.00 0.00 0.00 63 1016.3
20260901033633 30 360 16.1 30.6 0.00 0.00 0.00 63 1016.3
20260901033554 30 360 17.7 30.6 0.00 0.00 0.00 63 1016.3
20260901033433 30 360 16.1 30.6 0.00 0.00 0.00 63 1016.3
20260901033318 30 360 16.1 30.6 0.00 0.00 0.00 62 1016.3
20260901033218 30 360 16.1 30.6 0.00 0.00 0.00 62 1016.2
20260901033118 30 360 16.1 30.6 0.00 0.00 0.00 62 1016.2
20260901033018 30 360 14.5 29.0 0.00 0.00 0.00 62 1016.3
20260901032919 30 360 14.5 29.0 0.00 0.00 0.00 62 1016.2
20260901032820 30 360 14.5 29.0 0.00 0.00 0.00 62 1016.2
20260901032720 30 360 17.7 29.0 0.00 0.00 0.00 61 1016.3
20260901032623 30 360 17.7 29.0 0.00 0.00 0.00 61 1016.3
20260901032524 30 360 17.7 29.0 0.00 0.00 0.00 61 1016.3
20260901032424 30 360 16.1 29.0 0.00 0.00 0.00 61 1016.2
20260901032345 30 360 16.1 29.0 0.00 0.00 0.00 61 1016.2
20260901032223 30 360 16.1 29.0 0.00 0.00 0.00 60 1016.2
20260901032144 30 360 16.1 29.0 0.00 0.00 0.00 60 1016.1
20260901032024 30 360 16.1 29.0 0.00 0.00 0.00 60 1016.2
20260901031923 30 360 19.3 29.0 0.00 0.00 0.00 60 1016.2
20260901031849 30 360 19.3 29.0 0.00 0.00 0.00 60 1016.1
20260901031728 30 360 19.3 29.0 0.00 0.00 0.00 59 1016.1
20260901031629 30 360 17.7 30.6 0.00 0.00 0.00 59 1016.2
20260901031548 30 360 17.7 30.6 0.00 0.00 0.00 59 1016.1
20260901031428 30 360 16.1 33.8 0.00 0.00 0.00 59 1016.1
20260901031329 30 360 17.7 33.8 0.00 0.00 0.00 59 1016.1
20260901031229 31 360 16.1 33.8 0.00 0.00 0.00 58 1016.1
20260901031134 31 360 17.7 33.8 0.00 0.00 0.00 58 1016.1
20260901031034 31 360 19.3 33.8 0.00 0.00 0.00 58 1016.1
20260901030954 31 360 22.5 33.8 0.00 0.00 0.00 58 1016.1
20260901030834 31 360 24.1 35.4 0.00 0.00 0.00 58 1016.1
20260901030754 31 360 24.1 35.4 0.00 0.00 0.00 57 1016.0
20260901030635 31 360 22.5 35.4 0.00 0.00 0.00 57 1016.0
20260901030555 31 360 22.5 35.4 0.00 0.00 0.00 57 1015.9
20260901030454 31 360 19.3 35.4 0.00 0.00 0.00 57 1016.0
20260901030333 31 360 20.9 35.4 0.00 0.00 0.00 57 1016.0
20260901030217 31 360 20.9 35.4 0.00 0.00 0.00 56 1015.9
20260901030118 31 360 22.5 35.4 0.00 0.00 0.00 56 1015.9
20260901030019 31 360 20.9 35.4 0.00 0.00 0.00 56 1015.9
20260901025920 31 360 17.7 35.4 0.00 0.00 0.00 56 1015.8
20260901025821 31 360 14.5 32.2 0.00 0.00 0.00 55 1015.9
20260901025719 31 360 16.1 33.8 0.00 0.00 0.00 54 1015.9
20260901025640 31 360 19.3 33.8 0.00 0.00 0.00 54 1015.8
20260901025524 31 360 20.9 33.8 0.00 0.00 0.00 54 1015.8
20260901025425 31 360 19.3 33.8 0.00 0.00 0.00 54 1015.8
20260901025325 31 360 17.7 33.8 0.00 0.00 0.00 54 1015.8
20260901025225 31 360 16.1 33.8 0.00 0.00 0.00 53 1015.8
20260901025126 31 360 17.7 33.8 0.00 0.00 0.00 53 1015.8
20260901025027 31 360 20.9 33.8 0.00 0.00 0.00 52 1015.7
20260901024927 31 360 22.5 33.8 0.00 0.00 0.00 52 1015.8
20260901024830 31 360 24.1 33.8 0.00 0.00 0.00 52 1015.7
20260901024732 31 360 22.5 32.2 0.00 0.00 0.00 52 1015.6
20260901024633 31 360 24.1 32.2 0.00 0.00 0.00 52 1015.7
20260901024535 31 360 24.1 32.2 0.00 0.00 0.00 51 1015.6
20260901024435 31 360 22.5 32.2 0.00 0.00 0.00 51 1015.6
20260901024316 31 360 17.7 32.2 0.00 0.00 0.00 51 1015.6
20260901024221 31 360 16.1 30.6 0.00 0.00 0.00 49 1015.7
20260901024142 31 360 14.5 24.1 0.00 0.00 0.00 48 1015.6
20260901024022 31 360 12.9 24.1 0.00 0.00 0.00 48 1015.5
20260901023921 31 360 11.3 24.1 0.00 0.00 0.00 48 1015.6
20260901023822 31 360 11.3 16.1 0.00 0.00 0.00 48 1015.6
20260901023723 31 360 11.3 16.1 0.00 0.00 0.00 48 1015.5
20260901023623 31 360 9.7 16.1 0.00 0.00 0.00 48 1015.5
20260901023527 31 360 9.7 16.1 0.00 0.00 0.00 48 1015.5
20260901023428 31 360 8.0 14.5 0.00 0.00 0.00 48 1015.4
20260901023329 31 360 8.0 14.5 0.00 0.00 0.00 48 1015.4
20260901023227 31 360 9.7 14.5 0.00 0.00 0.00 48 1015.4
20260901023147 31 360 9.7 14.5 0.00 0.00 0.00 48 1015.4
20260901023026 31 360 8.0 14.5 0.00 0.00 0.00 48 1015.3
20260901022928 31 360 8.0 14.5 0.00 0.00 0.00 49 1015.4
20260901022834 31 360 6.4 12.9 0.00 0.00 0.00 49 1015.4
20260901022733 31 360 6.4 14.5 0.00 0.00 0.00 49 1015.3
20260901022634 31 360 6.4 14.5 0.00 0.00 0.00 49 1015.3
20260901022534 31 360 6.4 14.5 0.00 0.00 0.00 49 1015.3
20260901022455 31 360 6.4 14.5 0.00 0.00 0.00 49 1015.3
20260901022335 31 360 6.4 14.5 0.00 0.00 0.00 49 1015.3
20260901022220 31 360 8.0 14.5 0.00 0.00 0.00 49 1015.2
20260901022141 31 360 8.0 14.5 0.00 0.00 0.00 49 1015.2
20260901022019 31 360 8.0 14.5 0.00 0.00 0.00 49 1015.2
20260901021940 31 360 9.7 14.5 0.00 0.00 0.00 49 1015.1
20260901021839 31 360 8.0 14.5 0.00 0.00 0.00 49 1015.2
20260901021716 31 360 8.0 14.5 0.00 0.00 0.00 49 1015.2
20260901021618 31 360 8.0 14.5 0.00 0.00 0.00 49 1015.1
20260901021518 31 360 8.0 14.5 0.00 0.00 0.00 49 1015.2
20260901021419 31 360 8.0 14.5 0.00 0.00 0.00 49 1015.1
20260901021323 31 360 8.0 14.5 0.00 0.00 0.00 49 1015.1
20260901021223 31 360 8.0 12.9 0.00 0.00 0.00 49 1015.1
20260901021124 31 360 8.0 12.9 0.00 0.00 0.00 49 1015.1
20260901021025 31 360 8.0 12.9 0.00 0.00 0.00 50 1015.1
20260901020926 31 360 6.4 12.9 0.00 0.00 0.00 49 1015.1
20260901020826 31 360 8.0 12.9 0.00 0.00 0.00 49 1015.1
20260901020726 31 360 8.0 12.9 0.00 0.00 0.00 49 1015.1
20260901020630 31 360 6.4 12.9 0.00 0.00 0.00 49 1015.2
20260901020531 31 360 6.4 12.9 0.00 0.00 0.00 49 1015.1
20260901020430 31 360 6.4 12.9 0.00 0.00 0.00 49 1015.1
20260901020331 31 360 6.4 12.9 0.00 0.00 0.00 49 1015.1
20260901020251 31 360 6.4 12.9 0.00 0.00 0.00 49 1015.0
20260901020130 31 360 6.4 12.9 0.00 0.00 0.00 49 1015.0
20260901020031 31 360 6.4 9.7 0.00 0.00 0.00 49 1014.9
20260901015935 31 360 6.4 9.7 0.00 0.00 0.00 49 1015.0
20260901015818 31 360 4.8 9.7 0.00 0.00 0.00 49 1015.0
20260901015717 31 360 4.8 8.0 0.00 0.00 0.00 49 1014.9
20260901015617 31 360 3.2 8.0 0.00 0.00 0.00 49 1014.9
20260901015538 31 360 4.8 8.0 0.00 0.00 0.00 49 1014.8
20260901015419 31 360 3.2 8.0 0.00 0.00 0.00 49 1014.8
20260901015321 32 360 4.8 8.0 0.00 0.00 0.00 49 1014.7
20260901015225 32 360 3.2 6.4 0.00 0.00 0.00 48 1014.7
20260901015126 32 360 3.2 6.4 0.00 0.00 0.00 48 1014.7
20260901015046 32 360 3.2 6.4 0.00 0.00 0.00 49 1014.7
20260901014947 32 360 3.2 6.4 0.00 0.00 0.00 48 1014.7
20260901014827 32 360 3.2 6.4 0.00 0.00 0.00 48 1014.6
20260901014727 32 360 3.2 6.4 0.00 0.00 0.00 48 1014.7
20260901014625 32 360 3.2 8.0 0.00 0.00 0.00 48 1014.6
20260901014529 32 360 3.2 8.0 0.00 0.00 0.00 48 1014.7
20260901014431 32 360 3.2 8.0 0.00 0.00 0.00 48 1014.6
20260901014331 32 360 3.2 8.0 0.00 0.00 0.00 48 1014.7
20260901014252 32 360 3.2 8.0 0.00 0.00 0.00 48 1014.6
20260901014131 32 360 3.2 8.0 0.00 0.00 0.00 48 1014.7
20260901014031 32 360 3.2 8.0 0.00 0.00 0.00 48 1014.6
20260901013931 32 360 3.2 8.0 0.00 0.00 0.00 48 1014.7
20260901013816 32 360 3.2 6.4 0.00 0.00 0.00 48 1014.6
20260901013716 32 360 3.2 6.4 0.00 0.00 0.00 47 1014.6
20260901013617 32 360 3.2 6.4 0.00 0.00 0.00 47 1014.6
20260901013518 32 360 3.2 4.8 0.00 0.00 0.00 47 1014.6
20260901013419 32 360 3.2 4.8 0.00 0.00 0.00 47 1014.6
20260901013319 32 142 3.2 4.8 0.00 0.00 0.00 47 1014.6
20260901013225 32 360 3.2 4.8 0.00 0.00 0.00 47 1014.6
20260901013126 32 142 3.2 6.4 0.00 0.00 0.00 47 1014.6
20260901013046 32 360 3.2 6.4 0.00 0.00 0.00 47 1014.6
20260901012946 32 360 3.2 6.4 0.00 0.00 0.00 47 1014.6
20260901012847 32 360 3.2 6.4 0.00 0.00 0.00 48 1014.6
20260901012745 32 360 3.2 6.4 0.00 0.00 0.00 47 1014.6
20260901012624 32 360 3.2 6.4 0.00 0.00 0.00 47 1014.6
20260901012545 32 360 3.2 6.4 0.00 0.00 0.00 47 1014.6
20260901012425 32 360 3.2 4.8 0.00 0.00 0.00 47 1014.7
20260901012329 32 143 3.2 4.8 0.00 0.00 0.00 47 1014.6
20260901012229 32 360 3.2 6.4 0.00 0.00 0.00 47 1014.6
20260901012130 32 360 1.6 6.4 0.00 0.00 0.00 47 1014.6
20260901012051 32 360 3.2 6.4 0.00 0.00 0.00 47 1014.5
20260901011931 32 142 3.2 6.4 0.00 0.00 0.00 47 1014.5
20260901011831 32 142 3.2 6.4 0.00 0.00 0.00 47 1014.5
20260901011732 32 360 3.2 6.4 0.00 0.00 0.00 47 1014.4
20260901011617 32 360 3.2 6.4 0.00 0.00 0.00 47 1014.6
20260901011519 32 360 3.2 6.4 0.00 0.00 0.00 47 1014.5
20260901011419 32 360 3.2 6.4 0.00 0.00 0.00 46 1014.5
20260901011340 32 360 3.2 6.4 0.00 0.00 0.00 46 1014.5
20260901011220 32 360 4.8 8.0 0.00 0.00 0.00 46 1014.4
20260901011119 32 360 3.2 8.0 0.00 0.00 0.00 46 1014.4
20260901011040 32 360 3.2 8.0 0.00 0.00 0.00 46 1014.4
20260901010924 32 360 3.2 8.0 0.00 0.00 0.00 46 1014.4
20260901010825 32 360 3.2 8.0 0.00 0.00 0.00 46 1014.3
20260901010726 32 360 4.8 8.0 0.00 0.00 0.00 46 1014.3
20260901010625 33 360 4.8 8.0 0.00 0.00 0.00 46 1014.3
20260901010546 33 360 3.2 8.0 0.00 0.00 0.00 46 1014.4
20260901010425 33 360 3.2 6.4 0.00 0.00 0.00 46 1014.3
20260901010326 33 360 3.2 6.4 0.00 0.00 0.00 46 1014.3
20260901010230 33 360 3.2 8.0 0.00 0.00 0.00 46 1014.4
20260901010130 33 360 3.2 8.0 0.00 0.00 0.00 46 1014.4
20260901010031 33 146 3.2 8.0 0.00 0.00 0.00 46 1014.4
20260901005931 33 360 3.2 8.0 0.00 0.00 0.00 46 1014.4
20260901005833 33 146 3.2 8.0 0.00 0.00 0.00 46 1014.4
20260901005732 33 360 3.2 8.0 0.00 0.00 0.00 46 1014.3
20260901005616 33 360 4.8 8.0 0.00 0.00 0.00 46 1014.3
20260901005517 33 360 4.8 8.0 0.00 0.00 0.00 45 1014.4
20260901005437 33 147 4.8 8.0 0.00 0.00 0.00 45 1014.3
20260901005336 33 360 3.2 8.0 0.00 0.00 0.00 45 1014.4
20260901005257 33 360 3.2 8.0 0.00 0.00 0.00 45 1014.3
20260901005116 33 360 3.2 8.0 0.00 0.00 0.00 45 1014.3
20260901005017 33 122 3.2 8.0 0.00 0.00 0.00 45 1014.4
20260901004917 33 123 3.2 8.0 0.00 0.00 0.00 45 1014.3
20260901004842 33 360 3.2 9.7 0.00 0.00 0.00 45 1014.3
20260901004721 33 122 4.8 9.7 0.00 0.00 0.00 45 1014.3
20260901004622 33 360 4.8 14.5 0.00 0.00 0.00 44 1014.3
20260901004523 33 360 4.8 17.7 0.00 0.00 0.00 44 1014.4
20260901004424 33 117 4.8 17.7 0.00 0.00 0.00 44 1014.3
20260901004324 33 117 3.2 17.7 0.00 0.00 0.00 44 1014.3
20260901004225 33 117 4.8 17.7 0.00 0.00 0.00 44 1014.3
20260901004130 33 360 4.8 17.7 0.00 0.00 0.00 44 1014.4
20260901004030 33 360 8.0 17.7 0.00 0.00 0.00 44 1014.3